GFSNGP_sfc_thetae_036.txt.gz
Theta_e
289 290 291 290 291 290 289 288 285 288 287 292 293 293 293 293 293 296 302 304 304 305 305 306 306 305 304 302 300 301 299 297 296 298 297 295 295 295 294 294 293 293 293 293
286 289 289 288 290 289 290 289 289 289 288 293 292 292 293 293 296 297 299 301 302 302 303 305 305 304 302 300 299 300 298 297 297 296 295 295 295 293 292 293 293 294 293 292
283 285 286 282 286 289 289 290 291 286 291 292 291 292 292 294 296 295 295 295 295 297 299 300 301 302 299 298 298 297 297 297 295 294 293 292 292 293 293 293 293 292 292 291
280 280 275 288 291 291 289 289 290 289 289 292 292 292 294 294 293 293 292 291 290 291 292 293 295 295 296 296 294 292 291 292 293 294 294 294 293 292 292 292 292 291 291 290
281 279 283 287 289 289 288 287 291 289 292 293 294 294 293 291 291 290 289 289 288 289 289 289 289 290 290 290 291 291 292 293 294 294 293 293 292 292 292 292 291 290 290 288
278 277 276 286 291 293 292 283 292 293 292 293 292 283 290 290 290 289 289 289 288 288 288 288 288 290 290 290 290 291 292 293 294 294 293 292 291 291 291 291 290 288 286 285
275 276 282 290 292 293 283 285 293 294 293 293 290 290 290 290 288 289 289 289 290 289 288 288 290 291 290 291 291 292 293 294 294 294 293 293 292 290 288 287 285 283 283 283
278 276 280 292 292 287 290 291 293 294 294 293 290 289 289 289 288 288 287 288 289 288 288 289 290 291 289 290 291 293 293 293 292 291 289 288 286 285 284 283 282 282 280 281
287 286 293 293 292 294 294 294 294 294 295 294 290 289 289 287 286 286 285 285 287 287 287 288 288 289 287 288 289 287 286 285 285 285 285 284 283 283 282 281 279 280 281 281
288 291 292 294 295 295 295 294 296 296 295 292 289 289 287 286 285 285 285 285 287 287 286 286 287 288 287 287 285 284 284 283 283 283 283 282 283 282 281 279 279 281 281 281
288 292 293 295 294 293 292 293 292 292 291 290 289 287 287 285 285 286 286 287 288 287 286 285 286 285 285 284 284 283 283 283 283 281 281 282 282 282 282 282 282 282 282 282
289 294 294 294 293 293 292 291 291 290 289 289 289 287 287 285 286 287 286 287 286 285 285 284 283 282 282 283 283 282 282 282 280 280 279 281 280 281 284 285 286 286 286 285
295 297 293 292 292 292 291 289 289 288 288 286 287 287 287 285 285 287 286 285 284 283 282 280 279 280 281 281 282 280 279 280 280 279 279 279 279 279 277 280 283 284 284 285
295 294 290 291 289 290 289 288 288 287 287 287 286 286 285 283 283 284 283 283 283 282 280 279 279 279 278 278 278 277 277 277 275 275 275 275 274 276 276 275 275 277 281 282
293 293 293 291 290 288 288 287 285 284 285 284 285 284 283 282 281 281 282 283 280 278 278 278 276 275 277 277 276 276 276 275 274 273 273 274 274 275 275 274 275 274 275 276
290 290 290 288 287 287 286 285 284 283 284 283 283 282 282 282 281 282 282 282 278 276 276 273 274 275 276 276 275 275 274 274 272 274 273 272 271 272 272 272 272 272 272 272
286 285 285 285 285 285 284 285 285 284 284 283 283 282 281 281 280 280 278 277 276 275 275 273 273 275 275 275 274 272 271 272 269 270 270 269 268 269 269 268 268 269 268 269
292 290 289 287 285 283 283 284 283 284 283 283 280 280 279 278 278 277 276 275 274 273 274 273 273 273 273 273 272 270 269 268 268 268 267 265 265 266 265 265 266 265 265 266
290 288 287 286 286 284 283 283 282 281 280 279 279 278 278 277 276 275 274 272 272 273 272 273 273 271 271 271 269 268 267 263 264 265 263 261 261 262 261 262 262 261 262 263
288 288 286 285 285 283 282 282 281 280 280 279 278 277 276 275 273 272 272 272 273 273 273 272 271 270 269 269 266 267 264 259 262 260 257 258 254 253 255 259 260 259 259 260
284 284 282 282 281 282 281 281 280 279 279 278 277 276 275 274 272 270 271 271 273 274 273 271 270 269 269 266 267 258 259 254 254 255 252 252 251 253 253 254 254 256 257 258
283 281 281 281 280 279 279 279 279 278 276 274 273 273 272 272 270 270 269 272 273 270 270 270 269 262 265 263 264 256 258 256 255 253 252 250 249 249 251 251 252 254 255 256
282 281 281 280 279 278 277 277 276 275 274 273 273 273 273 273 273 270 270 272 271 267 269 265 262 260 258 255 253 251 251 251 249 249 248 246 246 246 248 251 252 252 253 254
282 281 280 279 279 277 276 276 276 275 274 275 273 272 273 269 268 271 270 264 262 261 261 258 258 258 255 250 250 248 249 248 247 245 249 248 244 245 247 248 250 252 252 253
280 280 279 278 278 277 277 276 276 276 275 275 275 274 273 272 268 268 264 263 265 263 259 255 256 254 250 249 248 248 248 247 246 245 246 244 245 246 247 247 248 249 251 252
278 277 277 277 276 277 276 276 273 272 272 271 271 270 268 269 268 267 265 262 261 259 256 252 251 249 248 250 248 248 250 251 247 246 245 244 244 246 246 248 248 249 250 251
276 276 275 274 274 274 274 274 273 271 270 270 269 268 267 266 264 264 259 257 254 252 251 251 249 250 250 248 248 249 250 250 247 248 244 242 242 244 245 246 247 248 249 250

GFSNGP_sfc_thetae_039.txt.gz
Theta_e
292 293 294 293 294 293 293 294 292 294 291 297 300 300 300 299 299 303 306 308 309 311 313 313 313 312 311 309 307 307 305 305 304 304 303 301 300 297 297 296 296 295 296 297
290 292 293 292 293 294 294 293 293 293 293 299 299 298 298 298 302 302 302 302 304 305 308 310 311 311 308 307 306 306 304 302 302 300 299 297 296 295 294 294 296 297 294 295
287 289 290 287 291 293 293 294 296 292 298 298 297 297 298 299 299 298 297 298 299 300 301 303 305 307 306 304 304 303 302 301 299 297 294 294 295 295 294 295 295 294 294 296
286 285 283 294 295 295 295 295 295 295 296 297 297 297 297 298 298 296 295 295 295 296 297 297 300 300 300 300 299 298 297 296 297 296 295 295 295 296 294 295 295 295 296 294
286 286 289 291 293 293 292 294 296 295 295 296 297 298 294 294 295 294 293 293 293 294 294 295 296 297 296 296 297 296 296 296 296 296 296 296 294 294 296 295 296 294 292 292
283 284 283 293 295 296 297 289 297 296 296 296 297 295 297 294 293 292 293 293 293 293 294 294 294 296 295 295 295 295 296 297 298 298 297 296 296 294 293 292 292 293 293 293
282 287 289 294 295 297 289 293 297 298 298 298 296 297 296 293 292 292 292 292 293 294 293 294 296 296 295 295 294 296 297 297 296 295 294 293 293 294 294 293 292 291 290 291
284 286 286 296 294 293 299 297 298 299 300 298 294 292 292 291 291 291 291 292 293 293 293 294 295 295 293 292 294 295 293 291 291 291 291 291 291 291 291 290 289 289 288 289
293 293 299 297 300 299 298 299 298 300 299 297 293 292 291 290 290 290 291 291 293 292 291 291 292 293 290 290 291 290 289 289 289 289 289 289 289 289 289 289 288 287 287 287
295 297 296 298 298 300 299 300 299 301 300 297 294 292 290 289 289 289 290 290 290 290 288 288 289 288 289 289 289 289 288 288 288 287 287 288 288 287 287 287 286 286 286 285
293 295 297 299 299 300 297 298 298 297 297 296 293 290 289 289 289 289 289 289 289 288 287 286 286 286 286 287 288 287 286 285 285 285 284 284 284 284 284 285 285 283 283 284
292 298 299 299 301 298 296 297 296 294 293 293 293 290 289 289 289 289 289 288 287 286 284 283 283 282 283 285 284 284 282 282 281 281 282 281 281 281 282 282 282 282 282 283
298 299 295 294 296 296 295 294 294 294 292 290 290 290 289 288 289 288 287 287 285 283 282 281 280 280 280 281 281 280 279 279 280 279 280 279 279 278 278 280 280 280 280 280
297 297 294 294 294 293 292 291 291 290 290 290 289 289 288 287 287 286 285 284 282 281 281 281 279 278 279 279 279 279 279 277 278 278 278 278 277 277 277 276 275 277 278 277
295 295 297 293 291 289 289 289 288 286 287 287 288 287 287 285 284 283 283 282 281 281 279 278 277 277 278 279 278 277 277 276 276 277 276 275 275 275 275 274 274 274 275 275
292 292 292 291 288 288 288 288 286 285 286 286 286 286 285 284 283 283 281 281 280 277 277 274 275 277 277 277 276 276 275 273 273 274 274 273 272 272 272 272 272 271 271 271
288 287 287 287 287 287 287 287 287 286 285 285 284 283 283 283 282 280 279 278 276 275 275 275 275 276 276 276 274 274 274 272 270 272 271 270 270 270 269 269 269 269 269 269
293 291 291 290 287 286 285 286 286 285 284 283 282 282 281 280 278 278 277 276 275 274 274 274 274 274 274 273 272 272 270 270 270 269 269 268 267 267 267 266 267 266 266 267
290 288 287 287 287 285 285 284 283 282 281 281 281 279 279 278 277 276 276 274 273 273 273 274 273 272 272 272 271 270 268 268 268 268 267 265 265 265 264 265 265 265 264 264
287 286 286 285 285 284 282 282 282 281 281 280 279 278 276 275 275 275 276 275 275 274 274 273 272 271 270 270 269 269 267 266 266 266 264 264 263 263 263 262 262 263 263 263
284 283 283 282 281 282 281 282 281 279 280 280 279 277 276 274 274 274 273 273 273 274 273 272 271 271 270 269 269 267 266 265 264 264 263 262 262 262 261 261 261 261 261 262
282 281 281 281 280 279 280 281 280 279 278 276 276 275 274 273 273 273 273 274 274 273 272 272 270 266 268 267 268 267 266 265 264 263 263 262 261 260 260 260 259 260 260 260
282 281 281 279 278 278 278 278 277 277 275 275 275 275 275 275 275 273 272 273 273 271 271 270 266 264 263 267 266 265 264 263 263 262 261 260 260 259 258 258 258 258 258 259
281 280 279 279 279 278 276 277 277 276 275 275 274 274 275 273 272 273 273 270 269 270 269 267 266 264 262 265 264 264 263 263 262 261 261 256 259 258 258 257 256 257 257 257
280 280 280 278 277 276 276 276 276 276 276 275 275 275 274 274 274 272 271 270 269 269 268 262 262 261 264 264 264 263 262 262 262 260 260 259 258 257 257 257 255 256 256 256
277 277 276 277 277 277 277 276 274 275 274 273 273 272 272 272 271 270 269 268 268 266 267 264 264 263 263 263 263 261 261 262 261 260 258 258 257 257 256 255 254 255 255 255
274 274 274 273 273 274 274 274 273 272 273 273 272 271 270 269 268 268 266 266 266 265 264 264 263 262 262 262 261 261 261 261 259 259 259 257 256 256 254 254 254 254 254 254

GFSNGP_sfc_thetae_042.txt.gz
Theta_e
298 298 298 297 297 299 297 299 295 297 297 301 303 305 306 307 306 307 309 312 316 319 321 322 322 322 322 320 319 319 317 316 315 314 313 311 309 309 307 308 303 299 298 297
295 298 298 296 298 298 299 299 299 299 298 305 307 307 306 305 306 308 309 311 313 316 318 318 318 318 316 316 315 315 313 311 310 308 306 305 303 302 298 297 297 297 298 297
291 296 296 291 297 298 300 301 301 296 301 305 305 305 306 306 307 307 307 308 309 310 311 312 314 315 313 312 312 311 309 307 305 304 301 300 298 297 296 298 296 297 297 299
293 291 286 297 302 303 300 301 303 302 304 305 305 306 305 308 307 305 305 304 305 307 308 309 310 310 310 309 308 306 305 303 303 302 300 300 299 299 297 298 297 298 298 298
292 290 294 295 297 298 298 299 304 303 304 304 303 303 301 303 306 304 304 304 304 305 306 306 306 306 306 305 304 303 302 302 302 302 301 301 300 300 301 301 300 299 297 294
291 289 287 297 303 304 303 295 305 305 304 303 303 299 303 301 301 301 302 302 302 303 304 304 304 305 304 303 302 301 301 301 302 302 301 300 300 297 294 294 294 295 297 297
293 293 296 301 302 303 294 298 305 306 305 304 302 305 305 302 301 301 301 300 302 303 302 302 303 303 302 301 300 300 301 300 299 297 294 296 297 297 297 297 296 295 294 295
295 292 290 302 300 299 306 306 307 307 307 306 306 303 301 300 299 299 299 299 301 301 301 302 302 301 298 296 298 298 296 294 295 294 293 293 294 294 294 294 293 292 293 293
298 298 307 304 307 308 310 308 306 307 308 308 302 300 300 299 299 299 299 300 300 299 299 300 300 300 296 295 295 294 293 293 293 293 293 293 293 293 293 292 291 290 289 289
298 303 304 306 308 307 307 307 307 308 308 306 302 301 299 299 298 298 299 298 298 297 295 294 295 295 294 294 294 293 292 292 292 290 291 290 290 289 288 288 287 286 285 285
301 304 302 305 307 308 306 305 305 307 307 305 303 300 299 298 297 298 298 297 296 295 293 292 292 292 292 292 293 291 290 289 288 287 286 287 286 286 285 286 283 283 284 284
300 307 306 308 309 309 306 304 305 305 304 305 303 300 299 297 298 297 295 295 294 293 291 289 289 288 288 289 290 288 286 285 284 285 286 285 285 285 281 281 280 280 280 280
304 304 306 304 304 309 306 305 305 304 305 302 302 299 298 296 296 294 294 293 291 289 287 285 284 283 284 285 285 284 283 283 283 283 283 283 283 282 281 283 280 279 279 278
303 301 301 300 301 301 303 303 301 303 302 301 299 298 297 295 293 293 292 291 289 287 284 282 281 282 283 284 283 283 281 279 283 283 282 282 281 281 281 279 278 279 279 277
302 301 299 300 300 299 299 298 297 296 296 296 296 295 294 291 291 291 289 287 286 284 282 281 282 281 282 282 281 281 281 280 281 281 280 278 279 279 279 278 277 277 278 277
297 299 297 297 295 294 294 295 295 292 293 292 292 292 292 292 289 288 286 284 281 280 281 279 279 280 281 280 280 280 278 275 277 279 278 278 277 277 276 276 275 276 275 274
294 293 293 291 292 293 293 294 293 292 292 292 291 291 288 286 284 281 279 278 278 278 278 278 278 279 279 278 278 279 279 277 273 278 276 275 275 275 274 274 274 274 273 273
298 297 297 296 294 291 291 292 292 290 290 288 285 283 282 281 278 277 277 276 275 275 275 276 276 276 276 276 276 276 276 275 276 275 275 274 272 273 273 272 272 272 272 272
296 294 294 293 293 292 290 287 285 284 284 284 283 281 280 279 278 277 277 275 275 274 274 275 274 274 274 273 274 275 274 274 274 273 272 269 272 271 271 270 270 270 270 270
289 288 287 287 287 285 283 283 283 283 282 281 281 280 279 278 278 277 277 277 277 275 275 274 273 273 273 272 271 273 273 272 271 272 270 270 270 269 269 268 268 269 269 269
283 283 282 281 281 282 283 283 282 281 282 282 281 279 277 277 277 277 275 274 274 275 274 274 274 274 273 273 273 273 272 272 271 270 270 269 268 268 268 268 267 267 268 268
282 281 281 281 281 281 282 282 282 281 279 278 277 277 276 275 276 275 277 277 276 275 275 275 274 270 271 268 272 272 271 270 270 269 269 268 267 267 266 266 266 266 266 266
282 281 281 280 279 279 280 280 279 279 278 278 278 279 278 278 278 276 274 276 276 274 275 274 270 268 267 272 272 270 270 268 268 268 268 267 266 266 265 265 264 264 264 265
281 281 280 281 281 279 277 278 278 278 277 277 277 278 278 276 276 277 276 274 273 273 273 271 270 266 266 271 270 269 268 268 268 268 267 264 266 265 265 264 263 263 263 263
281 280 280 279 278 278 278 278 278 277 277 277 277 277 277 278 278 276 275 273 271 272 272 267 265 264 269 269 269 268 268 268 267 267 266 266 265 264 264 264 262 262 261 261
277 277 277 277 278 278 278 279 277 278 278 276 276 276 276 275 274 274 273 272 271 269 271 271 270 269 269 268 267 267 267 267 266 266 265 264 264 263 263 262 261 261 261 261
274 275 275 275 275 275 276 276 275 275 275 276 275 275 274 274 273 272 271 272 271 270 270 270 269 268 267 267 267 267 266 266 265 264 264 264 263 263 262 261 260 260 259 259

GFSNGP_sfc_thetae_045.txt.gz
Theta_e
299 301 300 299 299 300 298 299 295 298 298 302 305 306 307 310 309 309 310 311 314 319 322 324 326 327 327 326 325 325 324 323 320 319 319 317 316 313 311 308 305 302 301 301
296 300 300 297 299 299 299 300 299 300 299 306 307 308 307 308 308 309 311 313 316 320 322 323 323 324 322 321 321 321 319 316 316 314 312 311 310 308 307 306 303 301 297 298
293 298 298 293 297 298 299 301 301 297 302 306 305 306 307 308 309 310 312 314 316 318 320 321 320 320 318 317 317 315 313 311 309 308 306 304 303 302 301 301 301 300 299 299
294 293 287 297 304 303 300 301 303 303 304 306 306 308 309 310 310 311 311 312 313 314 315 316 317 316 315 314 312 311 309 307 307 305 303 303 303 302 302 301 301 300 300 301
293 292 295 297 301 301 299 299 304 304 305 307 308 307 307 309 312 311 311 311 311 312 312 312 312 312 311 309 309 307 306 305 305 305 304 303 302 301 302 301 301 300 297 297
295 290 287 297 303 306 305 296 305 306 306 306 306 301 305 309 310 310 309 309 309 310 310 310 310 310 308 307 306 304 304 304 305 304 303 302 301 300 300 299 299 299 298 298
295 293 296 303 304 307 295 297 307 307 307 306 304 307 310 309 307 308 307 307 308 308 308 308 309 308 306 305 303 304 304 303 302 302 301 301 300 299 298 297 297 297 295 296
296 293 290 305 304 299 306 311 310 310 309 308 309 309 308 306 306 305 305 305 307 306 306 307 308 306 304 302 303 302 301 300 299 297 295 296 296 295 295 295 295 294 294 293
298 299 308 307 308 310 311 310 312 311 310 310 310 307 306 305 305 305 305 305 306 305 304 305 305 304 301 301 301 300 298 295 295 295 295 295 295 294 294 293 291 290 289 289
301 305 306 308 308 310 312 312 313 313 311 311 310 307 305 305 304 304 305 305 305 304 302 302 303 302 300 300 298 297 295 294 294 293 292 292 292 290 289 289 288 286 286 286
301 304 306 308 309 311 312 312 311 311 311 311 310 306 305 304 304 304 304 304 303 301 300 299 299 298 297 297 296 294 293 292 291 289 289 289 288 287 286 285 283 283 284 283
299 305 307 308 311 312 312 311 310 309 309 311 309 306 306 304 304 304 303 302 300 299 297 296 295 294 295 295 294 292 289 288 288 288 288 287 287 285 281 282 281 280 279 279
304 309 309 310 310 310 311 312 311 310 310 309 309 307 305 304 304 299 301 300 299 297 295 293 291 290 290 290 290 289 287 286 285 286 286 285 285 284 284 281 281 280 279 278
307 308 304 306 305 307 309 311 308 310 310 310 308 307 305 303 300 300 299 298 296 293 290 288 286 284 285 286 285 285 284 281 285 285 284 284 283 283 283 282 280 282 280 278
307 308 307 305 304 304 305 305 304 305 306 306 306 304 302 299 298 297 297 294 291 288 286 284 282 281 284 285 284 284 283 283 284 283 282 280 281 281 281 279 279 279 280 279
302 302 303 301 302 300 300 301 301 301 301 301 301 300 299 297 296 293 291 289 285 282 281 280 280 282 283 283 281 280 279 277 279 280 279 279 279 279 278 278 278 278 277 277
299 299 300 299 299 298 299 300 300 297 297 297 296 296 295 290 285 283 281 281 280 279 279 279 278 280 280 280 280 280 280 278 276 278 278 277 277 277 277 276 275 275 276 276
301 301 301 301 300 298 297 297 297 296 294 292 287 285 283 281 279 277 277 277 276 276 277 277 277 277 277 277 278 277 277 276 276 276 276 276 275 275 275 274 274 274 275 275
298 297 298 297 297 295 293 289 287 285 285 284 283 280 278 278 277 276 277 275 275 274 274 276 276 275 274 274 276 276 275 276 275 275 275 272 274 274 274 273 273 273 273 273
287 287 287 286 286 285 283 284 283 282 282 281 280 278 277 277 277 277 278 277 277 275 275 275 275 274 273 273 274 275 275 275 274 274 274 272 273 272 272 271 271 271 272 272
282 282 282 282 282 283 283 283 283 282 282 281 279 278 278 278 277 277 276 273 275 276 275 275 275 274 274 274 274 275 274 274 273 272 272 272 271 272 271 271 271 270 270 270
282 282 282 282 281 281 282 282 281 280 279 278 278 277 277 276 277 277 277 275 275 275 276 275 274 273 273 271 274 274 273 272 272 271 271 271 270 270 269 269 269 269 269 269
282 282 281 280 280 280 281 281 281 281 280 280 279 279 278 278 278 276 274 276 276 276 277 275 272 271 269 274 274 273 272 271 271 270 270 270 269 269 268 268 268 267 267 267
281 281 281 281 281 280 278 279 279 279 278 278 279 279 279 277 277 278 277 276 275 276 275 273 271 268 269 272 272 271 270 271 270 270 270 268 268 268 268 267 266 267 266 266
279 280 281 280 279 279 279 279 279 279 278 278 278 278 278 279 278 277 276 274 273 274 274 270 269 268 271 271 271 270 270 269 270 269 268 268 267 267 267 267 266 265 264 264
277 277 277 277 278 279 279 279 277 278 279 277 277 277 277 277 276 276 274 274 273 272 272 272 271 270 271 271 270 269 269 269 268 268 267 267 267 266 266 265 265 264 264 263
276 276 276 276 276 276 276 276 275 274 275 277 275 276 275 275 275 274 273 273 272 272 272 271 271 270 269 268 268 268 268 268 267 267 266 265 265 265 265 264 264 263 262 261

GFSNGP_sfc_thetae_048.txt.gz
Theta_e
298 299 300 299 299 299 297 298 295 297 297 301 304 306 307 310 310 309 309 310 312 315 320 323 325 326 327 326 326 326 325 321 318 317 317 314 312 311 308 307 305 301 300 299
295 299 299 297 300 299 299 299 299 299 298 305 306 307 307 307 308 308 309 309 313 315 320 323 324 325 324 323 322 323 319 317 317 316 315 314 312 309 307 304 301 300 298 297
290 297 296 291 298 299 299 300 300 296 302 305 305 306 306 307 308 308 309 312 315 317 321 323 323 322 321 320 320 317 315 313 311 309 306 305 303 302 301 299 299 297 297 297
289 292 285 297 304 302 300 300 302 302 303 305 305 307 308 310 311 310 312 313 316 319 320 320 320 319 318 316 314 311 309 308 306 305 302 302 301 300 299 299 298 297 297 299
289 288 294 297 300 299 298 297 303 302 303 305 306 309 309 311 313 313 313 315 315 317 318 317 315 315 313 311 309 307 306 305 305 304 303 302 300 300 300 300 299 298 298 297
294 286 284 297 302 305 304 293 304 304 305 305 306 300 304 309 312 312 313 313 312 313 313 312 311 311 308 307 306 305 305 305 305 304 303 301 300 300 299 298 298 298 298 297
291 290 295 301 304 305 292 295 307 308 307 308 305 307 310 310 311 311 311 310 311 310 309 309 309 309 306 305 303 305 305 304 303 302 301 300 299 299 298 296 296 292 291 292
293 290 288 306 303 297 303 309 311 310 311 313 312 310 309 309 309 308 307 308 308 307 307 308 308 307 304 302 303 303 302 300 300 300 298 297 295 294 293 293 291 289 288 287
296 296 306 307 305 308 311 312 312 311 312 312 311 309 308 307 307 306 306 306 307 306 306 306 307 306 302 301 302 300 300 297 294 294 295 295 293 292 291 290 287 285 284 284
296 300 304 307 308 310 310 310 312 313 313 314 310 309 307 307 306 305 306 305 306 305 304 303 304 304 302 301 301 298 294 293 293 292 291 291 290 289 288 285 284 283 283 282
299 302 303 304 305 308 311 312 312 311 311 310 311 309 307 306 305 305 305 305 305 303 302 302 302 300 300 299 297 295 294 292 290 289 288 287 284 285 282 281 281 281 280 280
298 304 304 306 308 311 309 308 310 311 310 310 311 309 308 306 306 305 305 304 303 302 301 300 298 297 296 297 295 292 289 288 287 286 286 286 284 282 283 281 281 280 280 278
303 309 308 310 308 310 309 309 311 312 310 308 311 310 308 305 305 302 304 303 301 299 298 296 294 293 294 293 292 289 285 286 285 285 284 283 283 283 278 280 281 281 280 279
303 305 303 305 306 307 307 308 309 311 310 309 310 309 307 305 303 303 301 301 299 296 293 290 288 285 287 286 285 283 283 284 284 284 283 283 282 282 282 280 279 278 279 279
304 306 307 307 306 305 305 305 306 306 307 307 308 306 305 302 301 300 300 297 293 290 287 285 283 283 285 285 284 283 282 282 282 281 279 279 280 280 280 279 279 278 279 278
303 303 303 303 303 303 301 301 300 301 302 303 303 302 302 300 298 294 292 289 285 283 281 280 280 281 283 281 280 278 278 279 280 280 279 279 279 278 278 278 277 277 276 276
298 298 299 299 301 301 300 300 301 300 298 297 293 292 289 282 280 279 279 279 279 278 278 278 277 279 280 281 280 279 278 276 277 278 277 277 277 277 276 276 275 275 274 273
298 299 299 299 299 299 297 294 292 289 287 284 282 281 279 278 276 276 276 277 276 275 276 277 277 276 277 277 277 277 277 276 277 276 276 276 274 275 275 274 274 273 273 273
289 289 289 289 289 287 285 284 284 283 282 281 278 277 276 276 276 275 276 275 274 273 274 276 276 275 275 276 276 276 276 276 275 275 274 272 273 274 273 273 272 271 271 271
283 283 283 283 283 282 281 281 281 280 280 279 277 276 275 276 277 276 276 274 274 274 276 275 275 273 273 274 275 275 274 274 273 273 274 271 272 272 271 271 271 271 270 270
281 281 280 280 280 280 281 280 279 279 279 279 277 276 275 276 276 275 273 272 274 276 276 275 275 274 273 274 274 275 274 273 273 272 272 272 271 271 271 270 270 269 269 269
280 280 280 280 279 279 280 279 279 278 277 277 277 277 276 276 275 275 275 273 275 275 275 274 272 272 272 272 274 274 273 273 272 271 271 271 270 269 269 269 268 268 267 266
280 280 279 278 278 278 278 278 278 278 278 278 277 277 277 277 277 274 272 276 277 277 274 272 271 271 270 273 273 272 272 271 270 270 270 269 269 268 267 267 266 266 265 265
280 280 279 279 279 278 276 278 278 278 277 277 277 278 278 276 275 276 276 275 274 273 272 272 270 269 268 272 272 271 270 270 269 269 269 268 268 268 267 266 265 265 265 263
277 278 278 278 278 278 279 279 278 278 277 277 276 276 276 277 275 275 274 274 273 274 271 269 269 268 271 271 270 269 269 269 268 267 267 266 266 266 266 265 264 264 262 261
276 275 275 276 276 276 277 276 274 276 276 275 275 276 276 276 275 274 274 273 272 272 272 272 270 269 270 269 268 268 268 268 268 267 266 265 265 264 264 264 263 263 262 262
274 275 274 274 275 274 274 274 273 272 274 275 273 274 274 274 273 273 272 272 272 271 270 270 270 269 268 267 267 267 267 267 266 265 264 264 264 263 263 263 262 261 260 260

GFSNGP_sfc_thetae_051.txt.gz
Theta_e
294 296 298 298 297 297 295 296 290 294 295 299 300 299 301 304 304 303 304 305 306 311 313 315 318 320 320 321 323 324 322 318 315 314 313 312 310 308 307 306 304 303 302 300
292 296 297 294 297 297 296 297 297 297 296 303 302 303 302 304 304 303 302 303 305 308 317 319 320 319 318 318 317 318 316 315 315 314 313 311 308 307 305 302 301 299 298 298
286 294 293 287 293 296 298 299 297 291 296 301 301 301 302 302 303 303 303 304 307 310 317 318 319 318 316 315 315 314 314 314 313 310 308 308 307 304 299 296 295 294 293 294
284 289 282 293 300 300 299 299 298 296 296 299 301 301 301 302 302 303 306 308 310 316 316 317 317 316 314 312 310 308 306 306 306 303 301 301 300 298 296 295 293 293 293 294
285 285 290 294 298 298 296 294 299 297 297 298 300 301 299 304 305 306 307 309 311 313 315 313 313 312 310 308 306 305 304 303 301 300 299 298 297 295 296 295 294 294 294 293
284 282 281 291 299 303 301 290 300 300 299 299 299 291 295 303 307 308 308 308 309 310 310 310 308 309 307 304 303 302 302 301 301 301 299 298 297 296 295 297 297 295 294 294
282 281 288 298 301 304 289 290 301 303 301 301 296 298 302 304 306 307 307 307 307 307 306 305 306 305 303 302 301 302 302 302 300 299 298 298 297 296 295 294 293 289 288 288
287 284 282 300 301 294 297 302 303 303 302 304 303 303 304 305 305 305 304 305 305 304 303 303 303 303 300 299 300 300 299 298 298 298 298 297 295 293 292 290 287 285 284 283
290 288 299 300 302 305 305 305 305 304 306 306 304 303 303 303 303 303 302 302 303 302 301 302 302 302 299 298 299 298 298 297 297 295 294 292 289 288 288 287 283 282 282 281
293 296 297 299 303 305 307 304 306 306 305 307 306 305 304 302 302 301 300 300 301 301 300 299 300 300 299 298 298 297 292 290 290 289 289 287 288 286 283 280 280 281 280 279
294 297 299 301 302 305 307 307 306 307 305 304 306 304 304 302 301 300 300 300 301 300 299 298 299 298 298 298 294 291 291 289 287 286 283 282 283 281 279 280 281 279 279 280
288 300 299 300 304 307 305 305 306 306 306 306 306 303 303 302 302 301 300 300 300 299 298 296 296 295 295 294 292 289 286 285 283 282 282 281 280 279 282 281 282 281 281 279
297 300 303 304 306 308 305 306 306 305 306 305 305 305 303 302 301 298 300 299 299 296 293 290 284 284 286 289 287 285 283 284 283 282 282 282 280 279 277 280 281 281 280 280
302 302 298 300 299 302 302 303 304 305 305 305 306 303 302 301 300 299 298 296 293 288 284 283 282 281 283 284 284 283 283 283 282 281 281 280 280 280 279 278 277 277 279 279
299 300 300 301 301 299 300 300 299 299 300 301 302 300 300 298 296 294 292 288 285 283 282 282 281 281 281 282 281 281 281 280 279 278 279 279 279 279 279 278 278 277 277 276
297 298 298 298 299 298 297 297 296 294 292 290 289 287 288 288 287 285 285 283 280 277 277 278 279 280 280 280 279 279 279 279 279 279 278 278 278 277 277 277 276 276 275 274
291 289 291 291 295 290 290 290 287 285 284 282 281 281 280 279 278 277 277 277 276 276 276 277 277 279 279 280 278 277 277 277 277 277 276 276 276 276 276 275 274 274 273 270
290 289 289 289 288 286 284 284 282 281 279 279 278 278 276 275 275 275 275 276 275 274 274 275 276 277 277 277 277 277 276 276 276 275 276 274 273 274 274 273 273 272 272 271
285 284 284 284 283 282 280 279 279 278 277 277 276 275 275 275 275 275 275 273 272 271 273 275 276 275 275 276 276 276 275 274 275 274 273 272 272 273 272 271 270 269 270 270
281 281 280 280 280 280 278 278 278 277 277 277 276 275 273 274 274 273 273 272 273 273 275 274 274 274 274 275 275 274 274 273 273 272 271 270 270 269 269 270 269 268 266 266
279 279 278 277 277 277 277 277 277 276 277 277 275 274 274 274 274 274 272 271 274 275 275 274 274 273 273 273 274 273 272 271 271 271 270 269 268 269 268 266 266 265 263 263
278 277 277 277 277 277 278 278 278 277 277 276 276 275 274 273 273 273 273 273 275 274 273 272 271 271 271 273 273 272 272 271 270 270 268 266 264 262 261 261 261 260 259 257
277 277 277 276 276 276 277 277 277 276 276 275 275 275 275 275 275 273 272 275 273 272 271 270 270 269 270 272 271 270 268 267 267 266 266 266 265 262 259 259 261 258 256 258
278 278 278 278 278 276 275 276 276 276 275 275 275 276 275 273 272 274 273 272 271 270 269 269 269 268 267 267 267 265 264 262 262 262 261 260 257 258 261 258 257 259 258 256
275 274 275 275 275 274 275 277 276 275 275 274 274 274 274 274 272 272 272 272 271 269 267 267 267 266 266 264 263 262 261 263 263 260 262 260 257 254 254 257 259 259 257 256
274 273 273 273 272 273 273 273 272 273 273 272 272 272 272 273 272 272 271 269 269 269 268 265 266 265 262 260 258 257 257 259 262 261 257 255 254 254 256 258 257 257 254 251
271 272 271 271 272 270 269 270 269 268 270 270 269 269 269 269 268 268 266 267 266 264 262 262 264 263 262 259 260 257 256 255 256 259 256 252 251 250 255 254 252 250 249 248

GFSNGP_sfc_thetae_054.txt.gz
Theta_e
294 295 295 294 295 296 293 293 289 292 294 297 299 299 300 301 302 301 301 301 307 308 309 312 315 315 317 319 321 321 319 318 318 321 320 319 319 315 312 311 309 306 303 302
290 294 295 292 294 296 296 296 295 295 295 301 303 301 299 301 302 301 301 302 305 310 311 315 318 317 318 319 320 321 320 320 318 315 314 313 311 308 307 304 305 302 300 299
286 292 293 287 292 293 294 296 296 291 297 301 300 301 300 300 301 302 301 301 302 308 314 317 317 318 316 317 318 319 318 316 314 313 310 308 308 305 302 301 301 298 298 298
283 286 281 292 298 297 295 297 298 297 297 298 299 300 302 303 301 301 301 301 301 308 314 317 316 315 314 314 314 314 313 312 311 310 308 306 303 300 298 299 296 295 295 295
281 284 288 292 295 295 294 293 298 297 297 298 299 298 297 302 302 302 301 304 309 312 313 313 314 312 310 309 307 307 305 306 306 304 303 302 300 298 295 293 293 292 292 292
286 281 280 289 297 300 299 287 298 299 300 299 298 290 295 302 304 305 307 310 311 310 310 310 308 309 306 304 303 302 303 302 301 301 300 297 296 294 293 293 293 293 293 293
285 282 285 295 299 301 288 289 299 301 302 300 296 298 300 303 305 306 307 308 309 310 310 307 307 306 303 302 301 301 300 299 298 298 296 295 295 295 295 294 293 288 286 285
286 284 281 299 300 292 296 299 300 303 301 300 301 300 301 303 304 304 305 305 306 305 304 303 304 304 300 299 300 300 299 298 297 297 297 296 295 293 293 290 286 284 281 280
289 288 297 300 300 303 303 301 301 302 303 304 302 301 302 303 303 304 304 303 303 302 300 300 301 302 298 297 298 298 297 297 296 296 295 294 292 289 288 287 284 282 281 279
291 295 298 300 302 305 303 303 304 305 304 305 303 302 302 302 301 301 301 301 300 301 299 297 298 299 298 298 298 297 295 294 292 291 287 286 286 286 284 282 282 282 281 279
292 295 298 299 300 301 302 305 305 306 304 303 302 304 302 301 300 301 301 300 302 300 298 296 297 297 297 297 296 293 290 288 284 284 283 281 280 280 281 281 282 281 280 280
288 297 297 297 300 302 302 303 304 305 303 303 303 303 303 301 301 301 300 300 299 298 296 295 296 296 294 293 291 288 285 283 281 281 281 279 278 279 282 283 283 282 281 279
294 298 299 302 303 304 304 303 303 303 304 303 304 303 302 300 299 297 299 298 297 293 288 287 286 286 288 289 288 285 283 283 282 281 280 280 280 279 277 280 281 281 281 280
297 299 297 298 296 299 300 301 301 301 300 300 301 304 302 300 298 297 294 289 286 285 283 283 282 282 285 285 284 283 282 282 281 280 280 281 280 279 279 278 277 277 279 278
294 295 296 297 298 297 298 298 293 289 287 286 288 294 295 290 286 284 284 283 282 281 280 280 280 280 283 283 282 280 280 280 280 279 279 279 279 279 279 278 278 278 277 277
293 291 292 292 290 290 290 289 286 283 282 282 281 280 280 279 278 277 278 279 279 277 278 278 278 280 281 281 281 280 279 279 279 278 278 278 278 277 277 277 276 276 276 273
288 287 288 288 287 285 284 283 282 281 280 279 279 279 278 277 276 276 276 277 277 277 277 277 277 279 279 278 278 278 277 277 277 277 276 276 276 275 275 274 274 273 272 271
287 286 286 285 284 282 281 280 279 279 278 277 277 276 276 275 274 274 274 274 274 273 274 275 276 277 277 277 277 277 276 276 276 275 275 273 273 274 273 273 273 272 271 271
282 281 281 281 280 279 278 278 277 277 277 276 276 274 274 274 273 273 273 272 271 271 272 275 276 276 275 276 276 275 274 274 274 274 273 272 272 272 271 271 270 270 270 270
278 278 278 278 278 278 276 276 276 276 276 275 274 273 272 272 273 272 272 271 272 273 274 274 274 273 274 275 275 274 273 272 272 271 271 271 270 269 270 270 269 268 267 267
277 277 276 276 276 276 276 277 276 274 275 275 273 272 272 273 273 273 271 270 271 272 272 272 272 272 273 274 273 272 272 271 270 270 269 268 268 268 267 266 265 264 263 261
276 276 275 276 275 275 276 276 276 276 275 274 274 273 272 272 272 272 272 270 271 271 271 270 271 271 272 272 271 270 270 269 268 268 266 266 265 264 262 261 259 258 257 255
276 276 276 275 275 274 275 275 275 275 274 273 273 272 272 272 273 270 268 271 271 270 270 269 270 270 269 268 268 267 266 265 265 263 262 261 260 259 259 261 261 259 255 256
274 275 275 276 276 275 273 274 274 274 273 273 273 273 272 270 270 271 270 269 269 268 268 268 267 267 266 265 264 263 262 261 261 258 257 257 254 254 254 251 252 253 256 255
273 273 272 273 272 272 274 274 273 273 272 272 272 272 272 272 269 270 270 269 269 267 266 265 264 262 260 260 259 259 259 258 257 255 254 251 250 248 248 250 252 253 252 251
272 271 270 271 270 271 271 271 270 270 270 268 268 268 268 269 269 268 267 266 266 265 265 264 263 261 260 260 258 255 253 255 255 254 249 248 248 249 249 250 249 248 247 247
269 269 269 268 268 267 267 267 266 266 266 264 264 265 265 265 264 264 262 261 260 259 258 257 256 256 256 252 252 251 252 252 253 252 249 247 248 248 248 247 245 245 245 246

GFSNGP_sfc_thetae_057.txt.gz
Theta_e
292 293 294 294 293 292 290 292 288 290 291 296 298 299 300 302 300 299 299 301 303 306 308 310 312 315 317 318 319 319 318 318 318 320 320 320 320 321 320 317 314 312 310 307
288 293 293 291 293 294 293 293 292 293 291 299 301 301 299 300 301 299 299 300 302 307 308 309 310 312 313 314 317 319 319 319 320 319 319 319 320 317 314 311 310 307 305 303
284 290 290 285 290 293 293 295 295 290 295 300 298 299 299 300 299 300 301 300 300 305 309 312 313 313 312 313 315 318 319 318 317 318 318 316 312 309 308 307 305 302 301 300
285 286 280 291 297 297 294 295 296 296 297 298 299 300 300 300 300 301 300 300 300 301 309 312 314 314 312 314 315 316 316 316 316 314 312 309 308 305 301 302 301 300 300 300
284 284 286 292 293 293 292 293 297 296 298 298 297 295 296 300 299 301 301 302 301 301 310 312 313 311 311 310 315 314 313 312 312 310 308 306 303 301 300 299 298 298 298 297
284 281 280 288 295 299 298 288 297 298 298 297 297 291 295 300 300 301 300 301 307 310 310 310 308 310 309 305 309 309 309 308 307 307 305 302 300 298 297 297 295 294 292 293
285 283 284 294 298 301 287 289 298 299 300 297 296 301 302 300 300 303 304 308 309 310 310 308 307 307 304 303 303 305 304 303 303 303 301 300 297 296 296 295 291 286 283 284
285 283 280 297 296 292 296 298 300 301 302 299 299 300 300 302 300 303 304 307 308 307 305 305 305 306 302 301 299 299 298 298 298 298 297 296 295 294 293 289 285 283 281 281
286 286 296 297 298 300 302 301 301 301 302 300 300 300 300 299 301 304 305 305 306 305 302 301 303 304 301 297 298 297 296 296 296 295 295 294 292 289 287 286 283 283 281 279
288 291 294 296 298 300 301 303 304 305 304 302 300 300 300 300 301 301 301 301 301 302 301 298 299 299 298 298 298 296 294 294 293 288 286 287 287 287 286 285 284 282 280 277
289 292 295 297 299 300 302 304 304 306 305 303 302 302 302 302 301 301 302 301 301 300 298 296 297 297 297 297 297 294 291 288 285 284 282 281 282 283 282 283 284 282 280 278
284 294 294 297 300 300 299 299 303 302 303 302 303 303 303 302 301 299 299 299 297 296 295 295 295 294 294 295 293 289 285 284 283 282 282 281 279 279 283 283 283 283 282 280
292 294 295 299 299 298 299 300 300 297 295 296 297 299 302 299 298 295 297 294 289 288 287 287 286 285 287 288 288 286 283 282 281 281 280 280 280 279 277 280 281 281 280 280
294 293 296 296 293 294 296 295 293 290 288 287 288 293 294 295 290 287 285 285 284 283 282 282 281 281 283 283 283 282 282 282 281 281 280 280 279 279 279 278 276 277 279 279
290 293 292 293 291 289 290 288 285 283 283 282 281 281 282 280 280 280 281 281 281 280 280 280 279 280 282 282 282 281 281 280 280 280 280 280 280 280 279 279 278 277 277 277
288 291 291 289 287 285 284 283 281 279 279 279 278 278 278 278 278 278 279 279 278 278 279 279 279 281 282 282 281 280 279 279 279 278 278 278 278 277 277 277 277 276 276 274
286 287 286 286 285 282 281 281 280 279 279 278 277 278 277 276 276 275 275 276 276 275 276 276 276 278 278 279 278 277 277 277 277 276 275 275 275 275 275 274 274 273 272 272
285 284 283 283 282 280 279 279 278 278 277 276 276 274 273 273 272 273 273 274 273 273 274 275 276 276 276 276 277 276 276 275 274 273 273 273 273 274 273 273 272 271 271 271
280 279 279 279 278 278 277 276 276 276 275 275 274 273 273 273 272 272 272 272 271 270 271 274 276 275 275 275 275 274 274 273 272 272 272 271 271 271 270 270 270 269 270 269
277 278 277 277 277 277 275 276 275 274 275 274 273 272 271 271 271 271 270 269 270 271 273 273 274 273 273 273 273 272 272 271 271 270 270 269 268 268 268 268 268 267 266 266
275 275 275 274 274 275 275 275 273 272 273 273 272 271 271 272 272 271 269 268 270 271 272 272 272 272 272 271 271 270 270 269 268 267 266 266 266 265 264 263 263 261 259 258
275 274 274 274 273 273 274 274 274 274 273 273 273 272 271 270 269 269 269 268 270 270 271 270 270 269 269 269 269 268 267 266 265 265 263 262 260 258 257 257 256 256 254 253
275 275 274 274 273 273 273 273 273 272 271 271 271 270 270 270 270 268 266 269 270 269 268 267 267 266 266 265 264 263 262 261 260 260 258 256 254 252 252 252 251 252 253 256
273 273 274 274 274 273 271 272 272 272 271 271 270 271 270 268 268 269 268 267 266 265 264 263 263 262 261 261 260 260 259 258 256 254 254 252 248 248 249 249 251 250 251 250
271 271 271 271 271 271 271 271 270 270 269 269 270 270 269 269 267 267 267 266 266 264 262 260 260 259 257 256 255 254 253 252 250 249 249 249 248 247 247 248 247 247 246 245
270 269 268 269 269 269 269 269 267 267 267 265 265 264 265 266 265 264 263 261 261 259 257 254 253 254 254 254 250 250 252 254 251 250 248 246 246 247 245 246 245 244 243 243
268 268 267 267 266 266 266 266 264 262 261 260 261 263 263 261 260 260 257 256 255 254 252 250 251 252 251 249 249 249 249 248 248 248 244 244 245 244 244 243 242 242 241 242

GFSNGP_sfc_thetae_060.txt.gz
Theta_e
292 293 293 291 291 290 288 289 286 288 289 294 296 297 299 300 300 300 300 299 300 304 307 310 312 312 313 313 314 314 313 312 313 314 314 315 316 316 317 318 318 319 318 313
288 292 292 289 291 291 290 290 290 291 290 297 299 298 298 299 299 299 300 300 299 303 304 307 311 312 314 314 314 314 314 314 315 315 316 316 317 317 317 318 319 319 314 311
283 289 288 283 288 290 292 293 292 289 293 298 297 298 298 300 300 300 300 300 299 301 305 307 308 311 312 314 314 315 315 315 315 315 315 316 317 317 318 317 313 311 308 306
283 285 279 289 294 294 292 293 294 294 295 298 298 300 299 300 299 299 299 301 300 300 302 306 308 308 308 309 311 314 315 315 315 315 316 317 315 314 311 308 308 305 305 303
280 280 284 288 292 291 290 291 295 294 295 297 298 294 295 298 298 299 299 300 300 300 301 304 309 310 310 310 311 312 312 312 313 316 315 310 309 304 302 303 302 300 299 298
284 278 276 285 295 298 298 286 296 297 296 296 296 289 294 302 300 300 299 298 299 300 302 307 308 310 311 312 310 311 311 312 312 311 308 305 303 302 300 300 296 295 294 295
283 282 283 291 296 299 285 285 296 298 299 298 294 295 298 299 300 299 302 304 306 307 307 308 309 310 307 309 311 308 307 306 306 306 304 302 299 298 296 294 290 288 286 287
283 281 277 294 294 292 294 297 298 299 299 300 300 300 300 300 300 300 302 306 307 307 305 305 306 307 302 302 301 303 302 301 300 300 298 297 295 294 291 289 286 284 283 282
284 284 292 294 295 298 299 298 299 299 300 302 300 298 299 300 300 300 302 304 304 304 302 302 304 304 301 296 297 298 298 297 296 295 295 295 292 290 288 287 285 283 282 280
285 288 291 293 295 297 298 299 301 302 302 301 301 300 299 299 299 299 300 301 302 302 300 298 299 299 297 298 298 297 295 293 292 290 289 289 289 289 287 285 284 283 281 279
286 291 293 294 296 297 296 300 300 301 302 302 301 301 301 301 300 299 299 300 300 299 296 296 297 298 299 298 297 293 290 289 287 286 285 283 283 284 284 285 286 284 282 280
283 292 292 292 295 294 294 295 295 294 298 294 292 294 298 300 299 299 297 297 294 293 291 291 291 290 293 294 292 289 285 284 283 283 282 283 282 280 284 284 283 283 282 280
291 292 291 293 294 291 290 292 291 289 287 286 287 287 292 288 287 288 287 286 285 284 284 284 283 283 286 287 287 286 283 282 282 282 281 280 280 279 277 280 282 282 281 281
293 291 291 292 289 289 288 289 288 285 283 282 283 284 283 281 281 281 281 282 283 282 281 281 281 281 283 284 283 282 282 282 281 281 280 280 279 279 279 278 276 277 280 280
288 289 291 291 289 286 286 285 282 280 280 279 279 279 279 278 278 279 281 281 281 280 280 281 280 280 283 283 282 282 281 281 281 281 280 280 280 279 279 278 276 276 277 277
286 287 290 289 285 283 282 282 280 279 279 278 277 277 277 277 276 276 277 277 276 275 276 276 277 279 280 280 280 279 278 278 279 278 278 278 278 277 277 276 276 276 274 273
283 283 283 283 282 280 279 279 279 278 278 277 276 276 276 275 275 274 274 275 274 274 275 275 275 277 277 277 277 276 276 275 275 275 275 275 275 274 274 273 273 272 271 272
282 281 280 280 279 278 277 277 277 276 275 275 274 273 272 272 271 271 272 273 273 272 273 274 275 275 275 275 275 275 274 274 274 273 273 272 272 272 272 271 271 270 270 270
279 278 278 278 278 277 276 275 275 274 274 273 272 271 271 271 270 270 271 270 270 270 271 273 275 273 273 274 274 273 272 272 272 272 271 270 270 270 269 268 268 267 267 267
276 277 276 275 275 275 273 274 274 273 273 272 272 270 269 269 270 269 269 268 269 271 272 272 272 271 271 271 272 271 270 270 269 268 268 267 266 266 266 266 265 264 263 262
274 274 273 273 273 273 273 273 272 271 272 271 269 268 268 269 269 269 268 267 269 271 270 270 270 270 270 270 270 268 267 267 266 265 264 262 261 261 260 259 258 256 256 254
273 273 272 272 272 272 272 272 272 271 271 271 270 270 269 268 268 267 268 267 268 268 268 268 267 266 267 267 266 265 264 264 263 262 261 260 258 256 254 254 251 250 250 251
274 273 273 272 271 271 272 271 271 270 270 269 268 268 268 268 268 266 264 267 267 266 265 264 264 263 263 262 261 261 260 259 258 256 254 252 249 248 248 248 248 249 249 250
272 273 272 273 272 271 269 270 271 271 270 270 269 269 268 266 266 267 266 263 262 262 261 260 259 259 258 257 257 255 254 252 250 248 249 247 244 245 245 245 247 245 245 246
271 271 271 270 270 269 269 269 268 268 267 267 267 267 267 267 263 264 262 261 262 260 257 255 256 255 253 252 251 250 249 248 246 246 245 244 244 244 244 244 243 243 243 242
269 268 268 268 268 268 267 267 265 265 265 263 263 262 262 263 262 262 260 259 259 256 254 249 248 248 248 249 247 247 248 249 247 246 244 244 244 244 243 244 242 242 241 241
265 266 266 265 264 263 263 263 261 259 256 255 259 259 258 256 255 257 252 251 250 248 246 245 246 248 248 246 247 246 247 246 245 245 242 243 243 242 241 241 240 240 240 239

GFSNGP_sfc_thetae_063.txt.gz
Theta_e
293 293 293 292 292 293 291 292 289 292 292 296 299 301 304 306 304 304 305 304 305 308 312 315 316 316 316 316 316 316 315 315 315 316 316 316 316 317 317 317 318 318 319 320
289 293 292 290 293 292 292 293 293 293 293 300 302 301 301 303 304 304 305 306 307 306 309 312 314 316 317 317 318 317 316 315 316 317 316 316 317 317 317 318 318 320 319 320
284 289 289 287 290 291 293 294 294 290 296 301 300 301 301 304 305 304 305 306 306 306 306 311 314 316 317 318 318 317 317 317 317 317 317 317 317 318 318 319 320 319 318 318
285 286 278 291 296 295 294 295 296 296 297 299 300 302 304 305 305 305 305 305 306 307 307 309 312 314 317 318 318 317 317 317 318 318 317 318 319 319 320 320 318 317 316 312
283 283 286 289 293 294 293 293 297 297 299 300 302 300 301 303 303 303 304 305 306 307 307 308 309 312 313 314 317 317 317 317 318 318 318 318 318 319 312 310 306 304 304 303
285 281 279 289 296 299 299 288 298 299 298 299 300 296 299 305 305 305 306 305 306 306 305 305 307 313 312 312 313 315 317 318 319 319 318 315 308 305 302 303 298 297 296 297
284 283 286 293 297 299 286 288 300 300 300 300 298 301 304 305 305 305 305 306 310 311 310 311 312 314 314 314 313 314 313 314 313 314 311 307 302 300 298 294 291 288 287 289
286 283 280 295 297 291 296 300 300 301 301 301 303 303 304 304 304 304 304 306 310 311 308 308 311 313 311 310 307 309 308 306 304 303 301 301 299 296 292 290 287 286 284 283
288 288 294 297 297 298 299 298 300 300 302 302 301 302 303 303 304 304 304 305 307 307 306 306 308 309 306 301 304 303 301 298 297 297 298 296 292 290 288 287 286 284 283 281
289 291 294 296 298 299 298 298 299 296 298 301 300 302 303 304 303 303 303 303 304 303 300 299 301 302 302 301 301 299 296 295 294 292 290 290 290 289 288 286 285 284 282 280
289 292 296 296 296 295 296 297 295 294 293 291 292 295 298 301 299 300 300 298 298 297 294 293 294 296 299 301 299 294 292 290 288 287 285 284 284 285 285 286 287 285 283 281
288 291 290 293 297 293 293 292 291 290 289 288 288 288 293 290 289 289 289 290 290 290 290 289 287 287 290 293 294 290 288 288 287 286 285 283 282 281 283 283 283 283 282 281
289 292 292 294 294 291 290 290 289 286 285 283 285 285 285 284 285 285 285 285 283 284 284 285 285 284 285 287 287 287 285 285 285 284 284 282 281 280 278 281 283 282 282 281
290 290 292 292 290 288 288 288 287 285 283 282 282 283 282 281 282 281 281 282 282 282 282 282 282 282 283 284 284 283 282 282 282 281 280 280 280 279 279 278 277 278 280 281
285 287 288 290 288 286 286 285 283 282 281 279 280 280 279 278 277 277 279 279 279 279 279 279 279 279 281 281 281 281 281 280 280 280 280 280 280 279 279 279 278 277 278 278
284 286 287 286 283 282 281 281 280 279 279 278 278 277 276 276 275 275 276 276 275 274 275 276 276 278 279 279 278 278 277 278 278 278 278 278 279 279 279 278 277 276 275 275
280 281 280 280 280 279 278 278 278 277 276 276 276 276 275 274 274 273 273 274 274 273 274 274 274 276 277 277 276 276 276 276 276 276 276 276 276 276 276 275 274 274 273 273
281 280 280 279 279 277 276 276 276 275 274 274 273 273 272 271 271 271 272 273 272 271 272 274 274 275 275 276 276 276 276 275 275 274 274 274 274 273 273 273 272 271 271 270
278 277 277 277 277 276 275 274 274 273 273 272 271 270 270 270 270 270 271 271 270 270 271 273 274 273 274 274 275 275 274 273 272 272 271 271 271 271 271 271 270 270 270 269
275 276 275 274 275 274 273 273 273 272 272 271 271 270 269 269 270 270 269 268 269 270 271 271 272 272 271 271 272 272 272 271 270 269 269 269 268 268 268 267 267 267 268 267
273 273 273 272 272 273 273 272 271 270 270 270 269 268 268 268 269 269 268 266 268 269 269 269 269 269 269 270 270 269 269 268 267 266 266 266 266 265 265 265 264 265 264 264
273 272 272 271 271 270 272 272 271 271 270 270 270 269 269 268 267 266 266 266 267 267 267 267 266 265 266 267 267 266 266 265 265 265 264 264 263 263 262 262 262 262 262 262
273 273 272 271 271 271 271 271 270 270 269 268 267 267 267 267 268 266 264 266 267 265 266 264 263 263 264 265 265 264 263 263 262 262 262 262 262 261 261 261 261 261 260 260
273 272 272 272 272 270 269 270 270 270 269 269 268 268 268 266 266 267 266 264 262 262 262 262 261 260 261 262 262 261 262 261 261 261 260 258 260 260 260 259 259 259 259 258
271 271 271 271 270 269 270 269 268 268 267 267 267 267 267 267 265 264 264 263 262 262 261 258 258 258 261 261 261 260 260 260 260 260 260 259 259 258 258 258 257 257 257 256
269 268 268 268 268 268 268 268 266 267 266 264 264 264 264 264 263 263 262 261 260 259 259 259 258 260 260 260 260 259 260 260 260 259 258 258 257 258 257 256 255 255 254 254
267 267 267 266 265 265 265 265 264 263 262 263 262 262 262 262 261 261 258 260 260 259 258 258 258 258 259 260 259 259 259 258 255 258 257 257 257 256 255 254 254 254 253 253

GFSNGP_sfc_thetae_066.txt.gz
Theta_e
294 295 295 294 294 296 294 295 292 295 295 299 302 303 306 308 309 310 310 311 312 313 317 320 322 322 323 323 323 322 321 320 321 322 322 322 322 322 323 323 322 322 322 323
289 293 294 293 295 296 297 297 296 297 296 304 305 306 306 305 308 308 310 311 312 313 314 316 320 322 322 322 323 323 321 321 321 321 321 321 322 322 322 322 321 321 322 322
285 291 290 288 294 295 296 297 297 294 299 303 303 304 306 307 306 308 309 310 311 313 314 315 317 320 322 323 324 322 321 322 322 322 321 321 321 320 320 321 321 322 322 321
286 288 279 293 299 298 297 298 299 299 301 303 304 306 307 308 307 306 309 309 310 312 313 314 315 318 322 323 323 323 322 321 321 321 321 322 321 320 321 322 321 322 321 321
284 284 289 291 295 295 294 295 299 299 302 303 305 307 306 308 309 309 311 312 312 313 313 315 313 313 315 318 322 322 321 322 322 322 321 321 321 322 323 323 322 322 321 320
287 282 279 291 298 301 301 290 298 301 301 301 303 299 303 308 309 310 311 312 312 313 316 316 317 315 313 314 317 319 321 322 323 323 323 322 323 322 322 322 314 304 299 300
286 285 288 295 299 301 287 291 300 300 301 301 299 303 307 309 308 310 311 312 314 316 316 315 316 318 315 314 314 317 320 322 322 323 323 323 322 315 306 298 295 292 290 290
286 283 282 299 298 292 298 301 302 303 304 304 305 306 306 306 308 309 310 311 313 313 312 312 314 317 316 315 315 317 318 318 317 315 308 308 303 299 297 294 289 287 286 285
290 290 300 301 300 303 302 301 302 302 302 302 303 305 306 306 308 309 309 310 311 309 308 306 305 309 310 305 305 303 302 301 299 297 297 297 296 293 291 290 288 286 285 283
291 295 297 299 302 302 302 301 300 300 300 299 297 300 300 304 306 306 306 304 305 306 304 301 297 296 298 301 301 299 296 294 294 292 291 292 291 290 289 287 286 285 283 281
291 295 298 299 300 299 299 300 299 298 297 294 294 295 297 299 297 297 297 297 298 299 298 296 295 292 292 294 296 293 292 290 288 287 286 284 284 286 286 287 287 285 283 282
291 294 293 295 297 296 296 296 296 294 292 293 292 292 293 292 292 292 292 292 289 288 287 289 290 289 288 289 291 290 288 288 286 286 285 284 282 281 284 284 283 283 282 281
293 295 295 297 295 292 291 291 293 292 290 289 290 289 289 287 286 285 285 286 285 284 284 284 284 283 285 286 286 285 284 284 284 284 284 282 281 280 278 281 283 283 283 283
291 292 293 291 290 289 289 289 288 287 285 284 286 286 286 283 283 281 280 281 282 281 282 282 281 281 283 285 284 283 282 282 282 281 281 280 280 279 279 278 277 278 281 281
288 288 288 290 288 285 286 287 284 282 281 280 281 280 279 277 277 277 278 279 279 278 278 278 279 279 281 282 281 281 281 281 281 281 280 280 280 280 279 278 277 277 278 278
285 287 286 284 283 282 282 281 281 279 279 278 277 277 276 277 275 275 276 276 275 274 276 276 276 278 280 280 279 279 279 280 281 281 281 280 281 280 279 278 278 277 277 277
281 284 283 283 282 280 279 280 279 279 277 275 275 277 276 275 274 274 274 274 274 274 276 276 276 277 279 280 281 281 281 280 280 280 279 279 279 278 277 276 276 275 274 275
282 281 281 281 281 279 278 278 277 276 275 274 273 273 272 273 272 273 274 275 274 273 274 275 276 277 278 279 279 280 279 278 278 277 277 276 276 277 276 275 274 273 273 273
279 279 279 279 279 278 277 275 275 274 274 273 272 271 272 271 272 272 273 273 272 272 272 274 275 275 275 276 278 278 277 277 276 276 275 275 275 275 274 274 273 273 272 272
277 277 277 276 277 275 274 274 274 273 273 273 272 272 271 271 272 271 271 269 270 271 272 273 273 273 273 273 275 275 275 274 273 272 273 273 272 272 271 270 271 271 271 270
274 274 273 273 273 273 273 273 272 271 271 272 270 269 268 269 270 272 270 269 269 270 271 270 271 272 272 272 273 273 273 272 271 270 270 270 270 270 269 269 269 269 269 269
274 273 272 273 272 272 273 273 272 271 271 271 271 271 270 269 268 268 268 269 269 269 270 270 269 267 270 270 271 270 270 269 269 269 268 268 268 268 267 267 267 267 267 267
274 273 273 272 272 272 272 271 271 271 270 269 269 269 269 270 270 269 267 268 269 268 268 267 265 266 267 269 269 268 268 267 267 267 267 267 266 266 266 265 265 265 265 265
274 274 273 274 273 272 271 272 272 271 270 270 269 270 271 269 269 270 268 266 265 265 265 265 265 265 266 267 267 266 266 266 266 266 265 264 265 265 264 264 263 264 263 263
274 274 274 273 273 272 272 272 271 270 270 269 269 269 269 269 268 268 268 266 264 266 266 263 263 264 266 266 266 265 265 264 264 265 265 264 264 263 264 263 262 262 261 262
273 272 272 272 272 272 272 272 271 271 270 268 268 268 268 268 268 268 266 265 265 265 265 265 264 266 266 265 265 264 265 265 264 264 263 263 263 263 262 261 261 261 260 260
271 271 272 271 271 270 271 271 270 269 269 269 267 268 268 268 266 266 265 266 265 265 265 265 265 264 264 264 264 264 264 264 260 262 263 262 262 262 260 260 260 260 259 258

GFSNGP_sfc_thetae_069.txt.gz
Theta_e
294 296 296 295 295 297 295 296 293 295 296 300 302 303 305 307 309 310 311 312 313 315 318 321 323 325 325 325 325 325 323 322 323 327 327 326 327 327 327 327 326 327 326 326
291 295 295 293 295 295 296 297 297 297 296 303 305 306 306 306 308 308 310 312 313 314 316 317 320 323 324 325 327 326 325 324 324 325 325 326 327 327 327 326 326 326 325 325
286 291 291 288 294 295 296 298 299 294 299 304 303 304 306 307 309 308 309 311 312 313 314 316 318 320 323 325 326 327 326 325 325 325 325 325 326 325 325 325 326 325 325 325
285 289 280 294 301 299 297 298 300 301 301 303 303 306 309 310 308 308 309 311 313 315 315 316 318 318 319 322 325 325 324 325 325 326 325 325 325 324 325 325 324 324 325 325
282 284 288 292 296 297 296 295 300 300 302 303 304 306 308 311 310 310 311 311 313 316 317 318 319 320 317 316 319 323 324 325 325 326 325 325 324 324 325 325 324 324 324 323
287 281 279 290 299 302 300 290 300 301 301 301 302 297 301 307 310 310 311 312 313 315 316 316 317 319 319 317 315 316 322 324 325 326 325 325 326 325 326 325 324 322 311 303
286 285 288 297 300 302 288 290 301 303 303 303 301 303 307 309 309 311 312 312 314 314 313 312 312 315 317 317 315 318 320 321 323 325 326 326 326 326 326 319 303 295 292 291
287 284 282 301 299 293 299 303 303 303 303 302 303 305 306 308 309 310 311 311 312 312 311 308 307 310 310 306 308 312 315 313 310 310 312 315 314 308 305 299 293 290 288 286
290 290 300 303 301 303 304 302 301 302 302 302 302 302 303 304 307 308 309 308 308 309 307 303 299 298 298 298 300 301 301 300 298 297 296 296 296 295 293 293 291 288 285 283
293 297 298 301 303 302 303 302 302 301 300 300 299 300 300 303 302 302 302 301 302 303 300 296 293 292 292 295 295 293 291 290 290 289 289 289 290 290 288 288 286 285 283 281
293 296 299 301 301 300 301 301 300 300 299 298 297 297 297 298 297 297 297 296 296 295 293 290 289 288 289 290 293 290 288 287 286 285 284 283 282 284 284 285 286 284 282 281
292 297 297 298 299 298 298 297 297 297 296 296 295 294 294 294 292 290 290 290 290 288 289 288 288 286 287 287 289 288 286 285 284 284 283 282 281 281 283 283 283 283 282 282
295 297 297 297 295 295 294 294 294 293 292 290 291 290 291 289 286 285 285 284 283 284 284 284 285 284 284 286 285 284 284 283 283 282 281 281 280 280 278 281 283 283 283 283
294 294 294 293 290 292 290 291 292 291 289 286 284 284 283 281 280 280 279 280 280 281 280 281 281 280 282 283 283 283 283 282 282 281 281 280 279 279 279 278 277 278 281 281
290 292 290 291 289 286 287 288 286 284 283 282 281 280 279 277 276 275 277 278 278 278 277 279 280 280 282 282 281 281 282 282 282 282 282 281 280 279 279 278 277 277 278 278
288 290 289 287 285 284 284 284 284 283 283 281 280 278 277 277 276 275 276 276 276 275 276 276 278 281 283 284 283 283 282 282 282 281 281 281 281 279 279 277 276 277 277 278
283 283 283 284 284 283 282 283 282 281 280 279 278 279 278 277 277 276 276 276 276 275 276 277 277 279 281 282 283 281 281 281 280 280 280 280 279 278 277 276 274 274 274 276
283 283 282 282 282 282 280 280 279 278 277 277 276 275 274 274 274 274 275 275 275 273 274 276 277 278 279 280 281 281 280 279 278 278 278 278 277 277 276 275 275 274 274 274
281 280 280 280 280 279 278 277 276 276 275 275 274 273 272 272 272 271 272 271 271 270 271 275 275 276 276 278 279 279 278 277 277 276 276 276 275 275 275 274 274 273 273 272
278 278 278 277 277 276 275 275 275 275 275 275 274 273 272 272 273 272 271 269 270 271 272 272 274 274 275 275 276 277 276 276 275 274 274 274 273 273 273 272 272 272 272 271
275 275 275 274 274 274 274 274 274 272 272 272 271 270 269 270 269 272 271 269 270 271 271 271 271 273 273 274 274 274 274 273 273 273 272 272 272 271 271 271 271 271 270 270
275 274 274 274 273 273 274 274 273 272 272 272 272 272 272 271 270 269 269 269 270 270 270 270 270 269 271 272 272 272 272 271 271 271 271 271 270 270 270 269 269 269 269 269
276 275 275 273 273 273 273 272 272 272 271 271 271 271 270 270 271 270 267 269 269 268 269 268 268 268 269 271 271 271 270 269 269 269 269 269 268 268 268 267 268 267 267 266
275 275 275 275 275 274 273 273 273 272 271 271 270 271 273 272 270 271 270 268 267 267 266 267 267 267 268 270 269 269 269 269 269 269 268 267 268 267 267 266 266 266 265 265
276 276 276 276 275 274 274 273 273 272 272 271 271 271 270 271 269 269 269 268 267 269 268 266 266 267 269 269 268 268 268 267 266 268 267 267 266 266 266 265 265 264 264 264
276 275 275 274 275 275 275 275 274 274 273 271 271 271 271 271 271 271 269 267 268 267 268 268 267 268 268 267 267 266 267 267 267 266 265 266 265 265 264 263 263 263 263 263
275 275 274 274 273 273 273 273 274 272 272 272 270 271 271 271 269 269 268 269 269 268 268 268 268 266 266 266 267 266 267 267 263 264 265 265 264 264 263 262 262 262 262 261

GFSNGP_sfc_thetae_072.txt.gz
Theta_e
291 292 294 294 294 295 294 296 292 295 296 300 301 303 305 307 308 308 309 311 313 313 317 320 323 324 325 324 323 323 321 321 322 323 324 324 323 324 323 323 323 322 322 321
286 292 293 291 295 296 296 297 297 297 296 303 305 306 306 307 308 307 309 311 312 313 313 314 320 322 324 325 325 324 322 320 321 322 323 323 323 324 324 323 323 322 322 321
282 290 291 288 293 294 295 297 297 293 298 303 303 303 305 306 307 306 308 309 311 313 315 315 315 318 318 324 326 325 323 323 322 322 321 322 323 323 322 322 322 322 321 321
283 286 280 292 299 298 297 298 300 300 301 302 303 306 307 308 307 307 308 309 311 313 315 317 318 318 319 320 318 324 324 324 323 323 322 322 322 321 322 322 321 320 320 321
282 282 287 291 295 296 295 295 301 300 302 302 302 305 303 306 308 309 309 311 312 314 315 314 313 314 317 319 318 316 321 323 324 324 323 322 321 321 321 321 320 320 320 320
285 281 279 289 298 300 298 287 299 300 300 300 302 297 299 306 308 309 310 312 312 313 311 307 307 311 313 310 309 310 314 317 318 324 323 322 322 321 321 321 320 320 316 301
284 283 287 296 300 301 286 289 300 301 300 299 297 300 303 306 307 310 310 309 311 310 304 301 301 305 303 302 301 304 307 307 305 306 310 316 321 321 320 319 301 294 290 289
285 283 281 300 299 293 298 301 301 301 300 300 301 301 302 304 305 305 304 303 305 306 301 297 296 296 296 295 297 297 296 295 293 293 295 299 304 301 300 297 292 288 287 285
288 289 299 301 300 302 302 299 299 299 299 299 299 299 299 301 301 301 300 299 299 298 296 293 292 291 290 291 295 293 290 289 288 287 286 288 290 292 291 292 289 287 285 283
293 297 297 299 300 301 301 299 299 299 298 298 297 297 297 297 296 295 295 293 294 293 291 289 289 289 289 290 293 291 289 287 286 284 283 283 284 285 285 286 285 284 283 281
293 295 295 296 297 299 298 298 298 298 297 295 295 294 295 292 290 290 289 288 289 287 287 286 287 286 287 288 290 289 287 286 284 283 282 281 282 282 282 283 285 282 281 281
289 294 294 293 295 297 295 295 295 294 293 293 291 291 292 288 287 285 284 284 283 283 282 282 282 283 284 286 287 287 285 283 283 282 282 281 280 280 283 284 284 284 283 282
290 295 296 295 293 294 292 292 293 291 289 287 287 287 286 283 282 281 280 280 280 279 281 281 281 281 282 284 284 283 283 282 282 281 281 280 280 279 277 280 282 282 283 283
292 294 291 289 288 290 290 291 290 288 285 284 284 283 281 280 279 279 278 279 279 279 279 280 281 281 282 283 283 282 282 282 281 281 280 279 279 278 278 277 275 276 280 281
289 292 290 290 288 287 288 288 287 284 282 281 281 279 279 276 276 276 278 278 278 278 277 278 278 280 283 284 282 282 282 282 281 281 280 280 279 279 278 277 276 276 277 277
288 287 288 287 286 286 285 285 284 282 281 280 278 278 277 277 276 276 276 276 274 274 275 275 276 278 281 282 282 281 280 280 281 280 279 278 277 276 275 275 274 274 275 275
283 281 282 282 283 282 281 281 281 279 278 278 278 278 278 277 276 275 275 274 273 273 274 274 275 277 279 280 280 280 280 279 278 279 278 277 276 275 274 274 273 272 273 274
282 282 282 281 281 280 278 278 277 277 275 275 275 274 272 271 271 271 272 272 271 270 272 273 275 275 276 278 278 278 278 277 277 276 276 276 276 276 275 274 273 272 272 272
280 279 279 279 279 278 276 275 275 275 275 274 273 272 272 271 270 270 271 270 269 268 269 272 275 274 274 276 277 277 276 275 275 275 274 273 273 273 273 272 272 271 271 270
277 277 276 276 276 275 274 274 274 273 273 272 271 270 269 270 272 271 270 268 269 270 271 271 273 272 273 274 275 274 274 274 273 272 272 272 271 271 271 269 270 270 269 269
274 274 274 274 273 274 273 273 272 271 272 272 270 269 269 269 269 270 270 267 269 271 270 270 270 271 272 272 273 272 272 272 271 271 270 270 270 269 269 269 268 268 267 268
275 274 273 273 273 272 273 273 272 272 271 271 271 272 271 270 269 268 267 268 269 269 269 269 269 269 271 271 271 270 270 270 269 269 268 268 268 267 267 267 266 266 266 266
275 274 274 273 272 272 272 272 272 272 271 270 270 270 270 269 269 267 265 267 268 267 268 267 266 267 268 270 269 269 269 268 267 267 267 267 266 266 265 264 265 265 264 263
275 275 275 275 275 274 272 273 273 272 271 271 270 269 271 271 270 270 268 268 267 266 265 266 266 267 267 268 268 267 266 266 267 267 267 265 266 265 265 263 263 263 262 262
276 276 276 275 275 274 273 273 273 273 272 272 271 271 270 270 268 268 269 268 266 268 267 265 266 267 267 267 266 266 267 266 264 265 265 265 264 264 263 263 262 260 261 261
276 275 275 274 275 275 275 275 274 273 273 271 271 271 271 271 270 270 268 267 268 267 268 268 266 266 266 266 266 265 266 266 264 264 264 264 263 263 262 261 261 261 260 259
275 275 275 274 273 273 272 272 273 272 271 271 270 271 270 270 269 269 267 269 269 268 268 268 268 265 265 265 266 265 265 265 262 262 263 263 262 262 261 260 260 260 259 258

GFSNGP_sfc_thetae_075.txt.gz
Theta_e
289 290 291 290 290 292 292 292 289 293 295 298 301 302 302 305 306 306 307 308 310 310 311 314 317 317 318 318 319 320 319 318 318 318 318 318 318 319 319 319 319 319 318 319
285 290 289 288 292 292 295 294 294 295 295 301 304 304 303 304 304 305 306 308 310 312 313 313 314 315 317 318 319 320 318 318 319 320 320 319 319 319 319 319 319 319 319 318
280 288 287 284 291 293 295 297 296 292 297 302 302 302 302 302 304 304 306 308 310 310 310 310 310 312 313 316 318 319 319 318 318 318 319 320 320 320 319 319 319 318 319 318
281 284 279 289 297 297 295 297 299 299 301 302 301 302 302 304 303 304 307 309 309 307 305 304 305 310 312 310 310 311 314 316 318 318 318 319 320 320 320 320 319 319 319 319
279 280 285 291 294 293 294 291 296 297 301 301 303 301 299 304 306 306 307 308 305 302 300 299 299 304 305 304 305 305 306 307 306 309 310 319 317 318 319 319 319 319 319 318
283 279 278 289 296 298 298 287 297 298 297 298 299 291 295 303 301 300 301 303 301 298 296 294 295 300 299 299 299 299 300 300 299 299 301 302 307 310 316 318 318 318 315 304
281 280 284 296 298 299 285 287 300 298 298 296 294 296 300 301 299 298 297 297 299 295 292 291 292 295 293 293 294 295 296 296 294 293 294 294 298 299 299 305 305 299 295 290
282 279 278 299 297 291 296 300 298 297 297 297 297 298 297 297 294 293 293 293 294 292 290 290 290 290 289 289 292 293 292 291 289 289 289 289 289 291 292 293 293 290 287 285
285 285 297 299 299 299 298 296 296 295 296 297 295 295 294 292 291 289 289 289 291 290 289 287 287 287 286 287 291 290 289 287 286 286 285 286 285 285 285 288 287 285 284 283
290 294 295 296 297 297 298 296 296 295 294 294 292 293 290 289 288 286 286 286 287 286 285 283 284 284 285 287 289 289 286 284 284 283 282 283 284 283 283 283 283 283 283 281
286 288 292 293 294 295 295 295 294 293 291 290 290 289 287 285 284 283 283 284 283 283 282 282 283 283 284 285 287 286 284 284 282 282 281 281 281 282 282 282 283 281 281 281
285 290 289 288 292 293 291 291 290 289 287 286 286 285 284 282 281 280 280 280 281 280 281 281 281 282 283 284 284 284 282 282 281 281 281 280 280 280 283 283 284 284 284 283
289 292 291 290 289 291 289 288 286 284 284 282 282 282 280 279 279 279 278 278 278 278 279 280 281 282 283 284 283 282 281 281 281 280 280 279 279 278 276 279 281 282 283 283
291 291 286 286 285 288 289 287 286 283 281 280 280 279 278 277 277 277 277 277 278 277 277 278 279 280 282 281 282 282 281 280 280 279 279 278 277 277 277 276 274 275 279 280
288 289 288 287 286 285 286 285 282 280 279 278 278 277 277 275 273 273 274 275 275 274 274 275 275 277 281 281 279 279 280 280 279 278 277 277 276 275 275 275 275 274 274 274
285 284 285 284 283 282 281 281 279 278 278 277 277 276 275 274 273 272 272 273 272 271 272 272 273 275 278 279 278 278 278 278 278 277 276 275 274 273 273 273 272 272 271 272
279 278 280 280 278 278 277 278 277 276 275 274 273 276 274 273 272 271 271 271 270 270 272 272 272 274 277 276 277 277 276 275 276 276 276 275 274 273 273 272 271 270 270 272
280 279 278 279 277 276 275 275 274 274 272 273 271 270 269 269 268 269 269 269 268 268 268 271 273 273 275 276 276 275 275 275 274 273 273 273 273 273 272 271 270 269 268 268
277 276 276 276 275 275 274 273 273 273 272 271 270 269 268 268 267 267 268 267 267 266 267 269 273 272 272 275 274 274 274 272 272 273 272 271 270 271 270 269 268 266 266 266
274 274 274 273 273 272 271 270 270 270 270 269 268 267 266 267 267 266 266 265 266 267 269 269 270 271 271 272 272 272 271 270 271 270 270 269 268 268 268 267 267 266 265 266
269 269 269 269 269 269 269 267 267 267 268 266 266 265 264 264 265 266 266 264 266 268 268 268 268 269 271 270 270 268 268 267 267 267 267 266 265 265 265 264 263 263 263 263
267 268 267 267 267 268 267 267 267 266 265 265 264 265 265 265 264 265 265 265 267 266 266 267 267 266 268 268 268 266 267 266 265 265 264 264 262 260 260 262 259 259 258 261
267 268 268 266 266 267 266 265 264 264 263 262 263 264 265 266 266 264 262 266 266 265 266 264 265 266 266 266 264 264 264 264 263 262 261 260 259 258 257 258 261 259 255 256
271 269 267 267 268 269 268 267 268 268 265 267 264 264 269 266 266 267 266 264 264 260 260 262 264 263 261 261 263 261 258 258 260 259 260 258 255 256 259 254 254 252 252 257
270 270 271 270 271 269 270 271 271 271 271 270 270 269 268 268 261 262 262 261 263 265 258 257 260 262 257 255 253 255 258 253 253 252 256 255 251 256 251 250 250 253 255 253
274 271 272 273 271 271 271 272 270 269 270 266 263 259 259 262 265 265 263 262 261 261 259 256 254 254 253 256 254 254 257 257 253 252 252 254 252 255 253 250 250 251 250 250
272 271 272 271 270 268 267 269 268 265 260 260 261 261 264 262 260 263 260 257 259 256 256 255 258 256 254 254 254 254 255 254 254 254 253 255 252 252 253 250 249 249 250 250

GFSNGP_sfc_thetae_078.txt.gz
Theta_e
287 289 289 288 289 290 288 289 287 291 292 297 301 302 303 304 305 306 308 309 309 309 310 313 314 314 315 316 317 317 317 316 315 316 317 317 317 318 319 319 318 318 318 318
283 288 290 287 290 290 290 291 290 292 293 300 305 305 303 302 304 306 306 306 305 305 305 306 310 312 314 315 316 318 316 317 317 317 316 316 316 316 317 318 319 319 317 317
277 286 285 282 288 289 291 294 294 289 295 301 302 301 301 301 304 305 304 303 301 300 300 301 303 306 305 307 309 312 316 316 316 317 317 317 317 316 316 316 317 317 317 317
278 282 276 289 294 296 295 295 298 299 300 300 299 300 299 304 304 302 300 298 297 297 296 296 300 301 302 302 303 304 304 304 305 304 308 311 318 317 317 317 317 316 317 317
276 278 282 288 292 294 288 289 298 298 300 300 300 298 294 297 300 298 297 295 294 294 294 294 296 297 297 297 297 298 299 299 299 301 302 304 305 306 314 317 317 317 318 317
279 276 275 287 295 298 298 286 297 299 299 298 298 289 290 294 295 294 295 293 291 291 291 290 292 295 293 293 293 293 293 293 294 295 296 297 299 299 300 303 310 315 301 292
279 279 283 293 298 300 285 287 296 297 296 296 293 293 293 293 291 291 292 291 291 289 287 288 290 292 290 290 290 290 290 289 288 288 290 290 293 294 295 297 294 291 287 286
280 279 277 298 297 290 294 297 297 296 296 295 293 292 291 289 288 288 287 288 289 287 286 286 287 288 287 287 290 289 287 285 284 284 285 286 286 288 290 290 288 287 286 284
284 284 295 297 296 298 298 295 294 295 295 294 291 289 288 286 285 285 284 285 287 285 285 284 285 285 284 285 289 287 284 282 283 283 283 283 283 283 284 286 285 284 283 282
288 289 291 292 295 295 294 292 291 291 292 292 288 287 285 284 283 282 282 283 284 283 282 282 283 284 284 285 288 286 284 282 282 282 281 282 283 283 282 282 282 282 282 281
286 286 290 290 290 291 292 291 288 287 287 287 285 283 282 281 280 280 280 281 282 282 282 281 283 283 284 284 285 284 283 282 282 281 281 280 280 281 282 283 283 281 281 281
283 287 287 287 289 289 286 285 286 284 282 283 283 281 281 279 279 279 279 279 279 280 280 281 281 281 282 283 283 282 281 281 281 280 280 280 279 278 282 283 283 283 284 283
286 288 287 287 289 288 284 283 282 281 281 279 280 280 279 278 278 278 277 277 276 276 277 279 279 280 280 281 281 280 280 280 279 279 279 278 278 277 275 277 279 280 281 281
289 289 284 284 283 286 284 283 282 279 279 278 277 278 277 276 276 275 274 274 275 275 275 275 277 278 280 278 279 278 277 277 276 276 276 276 276 276 275 273 272 272 276 278
285 286 285 284 283 284 284 282 278 277 276 276 276 275 274 272 271 271 273 273 273 273 273 273 274 275 278 278 278 278 278 276 275 274 273 273 273 273 273 272 271 271 272 272
282 283 283 280 279 280 280 279 277 277 276 275 274 273 272 272 271 270 271 270 270 269 271 271 272 274 276 275 275 274 274 274 273 273 272 272 271 271 271 271 270 270 270 270
278 277 279 277 276 276 276 276 275 274 274 273 273 273 272 271 270 269 269 269 269 268 269 270 270 273 273 273 273 273 272 272 272 273 273 273 272 271 271 270 269 268 268 269
277 277 277 277 275 274 274 274 274 273 271 271 269 267 266 266 266 266 266 266 266 266 266 267 271 271 272 272 273 272 273 272 272 271 271 271 271 270 269 269 268 267 266 267
275 275 275 275 275 274 273 272 271 270 269 268 267 266 266 265 265 264 264 265 265 264 265 267 272 270 270 272 271 271 270 269 270 270 269 268 268 268 267 266 266 265 265 265
273 273 273 272 271 270 269 268 268 267 267 266 264 264 264 263 263 263 263 263 263 264 267 268 269 269 269 269 269 269 268 267 268 266 266 265 265 265 265 264 264 264 264 263
266 267 266 267 266 266 264 262 263 264 262 262 262 259 258 259 260 259 261 263 263 266 267 267 268 268 269 268 268 265 266 265 264 263 262 259 259 261 261 259 259 258 260 260
263 264 262 263 264 265 261 262 263 262 262 261 259 258 260 261 259 261 259 263 265 263 265 266 267 265 266 266 266 264 265 264 263 262 261 259 257 256 254 253 251 251 252 251
263 264 264 262 263 262 262 262 260 261 260 258 258 259 262 264 264 261 261 265 266 263 265 263 262 262 262 261 259 259 260 260 260 258 255 254 253 252 251 251 250 249 250 253
265 265 264 263 263 266 265 263 266 265 260 264 261 264 267 262 260 265 264 261 259 257 258 258 260 258 256 256 254 253 251 251 251 251 252 251 249 249 248 247 248 247 250 249
267 269 270 269 270 268 269 269 269 269 269 269 268 267 267 266 259 259 257 258 262 259 255 254 256 255 252 250 249 253 251 249 248 249 250 249 250 249 247 247 248 249 249 248
273 270 271 271 270 270 271 272 269 269 268 262 260 256 255 259 261 262 260 260 259 259 257 252 251 250 250 252 250 250 252 253 251 250 250 250 249 250 248 248 247 247 246 247
270 270 270 268 267 267 266 268 264 262 262 262 262 259 258 255 256 259 255 254 254 253 252 256 257 256 255 254 253 251 251 251 250 251 248 249 248 249 247 247 246 246 246 246

GFSNGP_sfc_thetae_081.txt.gz
Theta_e
285 286 287 286 286 288 286 287 284 287 289 296 298 299 302 304 305 302 302 303 305 306 309 311 312 314 315 315 316 316 315 315 315 314 315 315 315 316 317 318 318 316 315 314
281 285 286 285 286 288 288 289 289 289 289 299 303 303 302 302 302 299 299 299 300 302 304 304 305 306 307 308 310 316 316 315 315 315 315 315 315 315 315 315 316 316 317 317
275 282 282 279 286 289 290 292 290 286 292 301 301 302 301 302 299 296 296 296 296 296 298 299 300 301 300 303 305 306 307 307 307 313 316 314 314 314 314 314 315 315 315 315
276 279 270 285 293 293 291 293 294 295 297 300 298 297 299 300 296 294 293 293 293 294 294 296 297 297 297 298 299 299 299 299 299 303 304 307 310 316 315 315 315 315 316 317
274 274 279 284 290 290 288 289 294 296 297 296 295 294 291 295 294 292 291 291 291 291 292 294 294 295 294 294 293 293 293 293 293 296 296 298 300 300 303 305 311 316 317 316
278 273 271 284 293 296 294 285 294 298 297 296 297 287 286 291 292 291 290 289 288 289 289 290 292 293 292 290 288 288 288 288 289 291 290 290 292 293 296 300 297 294 288 287
278 275 280 291 297 297 284 286 295 296 297 293 288 289 288 289 289 289 289 289 288 287 286 286 290 290 289 289 286 286 286 285 285 286 287 287 288 290 290 291 289 287 284 283
278 276 275 296 295 286 292 295 295 294 293 291 289 287 286 286 285 285 286 286 287 285 284 285 286 288 286 287 287 285 284 284 284 284 285 285 285 286 286 287 285 285 284 283
283 281 292 295 295 296 294 293 292 293 293 291 287 286 285 283 283 283 283 284 284 284 284 284 284 284 283 286 287 285 283 282 282 283 283 284 283 283 283 284 283 282 282 281
287 287 288 290 290 290 289 287 289 290 289 288 284 284 282 281 281 281 281 281 283 283 281 281 283 283 283 285 286 284 282 282 282 281 281 282 283 283 282 282 281 281 281 280
286 287 288 287 286 288 287 286 285 285 285 284 283 281 281 279 279 280 280 280 280 280 280 280 281 281 282 283 284 282 282 281 281 281 280 279 280 281 280 282 282 281 281 281
281 285 285 285 285 285 283 282 282 281 280 281 281 280 279 278 278 278 277 277 277 278 279 279 279 279 280 281 281 281 280 280 280 279 279 279 277 276 280 281 281 282 282 281
285 286 286 285 284 283 281 280 280 279 279 278 279 278 278 276 276 276 275 275 275 275 276 277 277 278 279 280 280 279 278 278 277 277 277 276 275 275 273 275 278 279 279 280
286 288 283 284 282 283 281 279 279 278 277 277 276 276 275 274 274 273 273 274 274 274 274 275 275 275 278 279 278 275 274 274 274 273 272 272 271 271 271 270 269 270 274 276
284 283 282 283 282 281 281 279 277 276 275 274 274 273 273 271 270 270 271 273 273 272 272 272 273 273 276 277 276 275 275 273 271 270 270 270 270 270 269 269 268 268 269 269
282 281 280 278 278 278 278 277 276 275 274 273 272 271 271 270 270 270 270 270 269 267 269 270 271 272 274 273 272 272 272 272 270 270 270 269 269 269 268 267 267 266 266 266
278 277 277 275 275 275 275 275 275 274 273 272 272 272 271 270 269 268 268 268 267 266 267 268 268 270 270 270 269 270 268 270 270 271 270 270 269 268 267 266 265 265 264 265
276 276 276 276 275 274 273 273 273 272 270 270 268 266 265 265 265 265 264 265 264 264 265 265 267 268 269 268 270 270 270 270 269 269 269 268 267 267 265 265 265 264 263 263
275 275 275 275 274 273 272 271 269 268 266 265 264 262 262 261 259 258 258 260 260 261 264 264 271 267 267 270 269 268 267 266 267 267 267 264 265 265 264 263 262 261 261 262
273 273 272 270 270 269 267 265 266 265 264 264 262 260 259 256 255 256 256 258 259 262 264 265 267 267 267 267 266 267 265 263 265 263 262 262 261 259 261 261 261 260 258 259
265 266 265 264 262 261 260 258 261 260 258 259 260 256 255 256 257 256 259 261 261 263 265 266 265 266 266 265 265 262 262 261 261 259 257 256 256 257 255 255 256 256 255 255
261 262 260 262 262 261 259 260 262 260 260 258 253 253 256 257 256 258 256 260 264 261 263 264 264 260 262 262 262 260 261 260 259 258 256 254 253 252 249 250 250 250 249 248
261 262 262 261 262 261 260 260 257 259 256 255 255 256 260 262 262 259 258 264 264 261 264 259 258 257 257 257 256 255 255 255 254 252 250 249 248 248 248 248 247 247 247 248
262 263 261 261 261 264 264 262 264 263 259 262 259 258 264 258 256 264 263 258 255 254 254 254 255 255 253 250 250 249 248 247 248 247 249 248 245 245 245 245 247 246 247 248
265 265 265 264 267 266 267 268 267 267 267 267 267 267 266 264 258 259 256 257 259 257 254 251 254 252 249 248 248 249 248 247 246 247 247 247 247 246 245 245 245 246 245 244
270 268 270 270 269 268 269 270 268 268 268 264 261 255 254 256 259 259 257 257 258 257 255 251 250 249 248 250 249 248 249 251 248 248 247 248 247 247 246 246 245 246 244 244
270 268 268 267 267 266 265 265 264 263 263 262 261 258 257 253 253 257 254 255 253 251 251 251 251 255 252 250 250 251 251 250 249 250 246 246 246 247 246 246 245 244 243 242

GFSNGP_sfc_thetae_084.txt.gz
Theta_e
283 284 285 284 284 285 284 285 282 283 285 290 294 299 300 303 300 300 300 302 304 306 308 310 312 313 314 314 314 314 313 312 312 312 313 313 313 314 315 315 313 311 311 312
281 283 283 282 284 283 283 285 286 286 286 295 298 303 301 298 297 296 296 297 299 300 302 303 304 304 306 307 310 316 313 313 316 313 313 312 312 312 312 313 313 313 312 313
273 280 280 277 282 286 286 289 289 285 290 297 299 301 300 296 294 293 293 293 294 295 297 297 297 299 299 301 304 305 304 304 304 309 314 314 314 314 315 315 315 313 314 315
276 278 268 280 291 291 288 290 291 293 295 295 297 294 293 294 292 290 290 290 290 292 293 293 295 295 295 295 295 295 295 295 297 299 300 302 304 304 308 312 315 315 314 315
273 274 278 282 289 287 285 285 292 291 295 297 293 291 288 292 290 289 289 288 288 289 291 292 292 292 291 289 290 290 289 290 292 293 293 295 294 295 298 302 299 293 292 293
277 273 268 279 291 295 294 282 290 294 296 292 296 287 283 288 289 288 287 287 287 287 287 289 291 291 287 286 285 285 286 286 288 289 289 289 290 291 293 292 289 288 286 286
277 277 279 288 293 296 282 283 288 290 287 287 284 286 287 288 287 287 286 286 287 286 284 285 289 289 287 285 283 284 285 285 285 286 286 287 287 288 289 288 286 284 283 283
280 277 274 292 293 287 290 290 287 287 285 284 284 284 284 284 283 284 283 284 285 284 283 284 285 287 286 284 285 284 283 283 283 284 284 285 285 285 286 286 284 283 282 282
282 281 289 289 288 290 290 287 289 287 287 286 284 282 282 281 281 281 282 283 283 283 282 282 283 283 283 284 285 284 283 282 282 282 283 283 283 283 282 283 282 282 281 281
285 285 284 286 287 286 286 284 286 286 286 285 282 281 280 280 280 280 280 280 281 281 280 279 280 281 282 284 284 283 281 280 281 280 280 281 281 282 282 282 281 281 280 280
284 286 286 283 284 284 283 284 282 283 283 282 281 279 279 278 278 278 278 278 279 279 279 278 279 280 281 281 283 282 281 280 279 279 278 278 279 279 280 281 281 279 279 280
279 284 283 281 282 283 281 279 280 280 279 280 279 278 278 276 276 276 276 277 276 277 277 277 278 278 279 280 280 280 279 279 278 278 277 276 275 276 280 281 281 281 281 280
283 285 283 282 281 281 279 278 278 278 278 276 277 276 276 275 275 276 274 274 274 275 275 276 276 276 278 278 277 277 276 276 275 275 275 274 272 272 270 273 277 278 279 279
284 287 282 281 279 280 279 278 278 276 276 275 274 274 274 273 273 272 272 273 273 273 273 274 274 274 276 276 275 273 272 271 271 270 270 269 268 268 268 267 267 268 272 275
281 282 281 281 280 279 279 278 275 274 274 273 273 272 272 270 269 269 271 272 272 271 270 271 271 272 274 275 274 273 272 270 269 269 268 268 268 268 267 266 265 265 266 267
280 279 278 276 276 276 276 276 275 273 273 272 271 271 270 270 269 269 269 269 267 266 268 268 269 270 272 271 271 270 269 271 269 269 268 267 267 266 265 265 264 263 263 263
278 275 276 275 274 274 274 275 274 273 272 271 271 271 270 269 267 266 266 267 266 265 266 267 266 268 269 269 268 269 268 268 268 268 268 267 266 265 265 264 263 262 261 261
276 275 275 275 274 273 272 272 272 270 268 268 266 264 262 262 261 261 261 262 262 262 263 263 264 265 266 266 267 267 267 268 268 267 266 265 265 264 263 263 262 261 260 260
274 273 274 273 273 272 271 269 268 267 265 263 262 260 258 257 256 255 255 258 259 261 262 262 270 266 265 269 267 266 265 264 265 265 265 262 261 262 260 259 258 257 258 259
271 271 270 269 268 268 266 263 264 263 262 261 259 259 258 255 253 254 255 258 259 261 263 264 265 266 266 265 264 264 263 261 264 260 259 259 256 254 256 258 257 254 252 252
264 265 264 263 260 260 259 257 260 259 256 256 258 253 254 253 254 253 258 260 262 262 264 264 264 264 264 263 263 259 259 258 257 256 254 252 252 252 250 249 250 249 250 251
261 261 259 261 262 260 257 258 260 257 257 254 250 250 253 256 255 256 254 259 264 260 262 262 262 257 260 260 260 257 259 258 256 255 252 250 249 247 246 246 247 247 246 246
259 261 261 259 260 259 258 258 256 256 255 253 254 255 258 261 261 258 257 263 263 260 262 257 255 254 254 253 253 251 251 250 249 249 247 246 246 245 246 247 246 246 246 247
261 261 260 259 260 264 263 261 264 262 257 260 257 256 263 257 255 263 262 257 254 252 253 253 253 253 251 248 248 247 247 246 246 246 248 246 243 243 244 244 246 244 244 245
264 263 263 264 267 267 267 267 266 266 266 266 266 266 265 263 257 258 255 256 258 256 254 250 252 251 247 246 247 247 246 246 245 245 246 246 246 244 244 243 244 244 243 243
270 268 268 270 268 267 268 269 266 266 267 262 261 255 254 255 258 257 256 255 256 256 254 250 248 247 247 249 248 247 248 249 247 247 246 246 245 246 244 245 244 244 243 243
268 267 267 266 265 264 263 263 260 259 261 260 261 256 255 252 252 255 253 252 252 251 250 248 248 252 251 249 248 248 251 250 250 249 246 245 244 244 245 246 245 244 242 241

GFSNGP_sfc_thetae_087.txt.gz
Theta_e
285 286 286 285 285 286 284 285 281 283 284 289 293 295 299 298 298 296 295 296 298 301 305 309 312 313 314 316 318 320 319 320 319 320 322 321 321 321 320 318 317 318 319 320
282 285 285 282 285 285 285 285 285 286 287 295 298 300 298 296 294 292 291 292 294 295 297 299 301 304 304 308 317 318 317 316 318 319 320 320 320 320 321 320 319 318 317 318
278 282 282 278 283 285 286 289 290 284 291 294 296 294 295 292 291 289 289 289 290 292 293 294 296 297 298 299 301 301 301 301 303 309 309 310 314 316 317 318 319 317 317 316
279 280 271 283 289 291 289 290 291 291 292 295 294 291 290 292 290 288 287 287 287 289 290 291 292 292 293 294 294 294 294 294 296 298 298 299 300 302 305 304 300 302 299 303
277 277 280 284 290 288 288 286 288 287 289 291 291 288 286 289 288 287 286 286 286 287 289 290 289 289 289 288 289 289 288 290 291 293 293 293 294 295 297 294 291 290 289 290
279 274 272 281 290 295 294 283 287 286 285 293 291 285 282 287 287 286 285 285 285 285 286 288 289 289 286 285 286 285 286 287 288 289 290 289 290 290 290 289 287 286 285 285
278 277 280 287 291 296 282 282 287 286 284 282 280 283 284 285 284 285 284 285 285 284 283 284 288 288 285 285 284 285 286 287 287 287 287 288 288 288 288 287 285 284 283 283
280 278 275 287 291 285 288 287 287 285 284 281 281 281 281 282 282 283 282 283 283 282 281 283 284 286 284 283 285 285 285 284 285 285 286 287 286 286 286 286 284 283 283 282
283 282 285 286 284 286 287 286 286 285 284 282 280 280 281 280 280 280 281 281 282 281 280 281 282 282 283 283 284 283 283 282 282 283 284 284 285 285 285 285 284 283 283 282
281 282 282 283 285 284 284 282 283 284 283 282 280 280 279 278 278 278 279 279 280 280 279 278 280 281 281 284 283 283 282 281 282 282 282 283 283 283 283 283 283 282 282 282
282 283 283 281 282 282 282 282 281 281 281 280 279 277 277 276 277 277 277 278 278 278 278 278 279 279 280 281 283 281 281 281 280 280 281 280 280 281 281 282 282 280 280 281
277 282 280 278 281 281 279 279 280 279 277 278 278 276 276 275 276 276 276 277 276 277 277 277 278 278 279 280 282 281 280 279 279 279 279 279 279 278 280 280 281 281 281 281
282 282 280 280 280 280 278 277 277 276 276 275 276 276 276 275 275 276 275 274 275 275 276 276 276 276 277 278 278 277 277 278 278 278 278 277 277 276 274 274 277 277 278 279
284 283 279 280 277 279 278 277 277 275 275 275 274 274 274 273 273 273 273 274 273 273 274 274 274 274 277 277 276 275 275 273 276 276 275 275 275 274 274 274 272 272 273 274
280 281 280 280 279 278 278 277 275 274 274 273 273 273 272 271 270 270 271 272 272 272 271 272 272 273 276 276 275 275 276 275 274 274 273 273 274 273 272 271 270 270 272 271
279 278 278 276 276 277 277 275 274 273 273 273 272 271 271 270 269 269 269 269 269 268 269 269 270 271 273 274 274 274 274 272 273 274 273 273 272 271 271 270 269 269 268 268
278 276 276 275 274 274 274 274 273 272 271 271 270 271 270 269 268 267 267 268 267 267 268 268 268 268 270 270 273 274 274 273 271 273 273 272 271 270 270 269 268 267 266 265
276 276 276 276 274 273 272 272 271 270 269 268 266 265 264 263 263 263 263 265 265 266 266 266 269 268 269 270 272 273 273 273 272 271 271 270 270 269 269 268 267 266 266 264
275 274 274 274 273 272 271 270 268 267 266 265 264 261 261 260 261 261 263 263 263 265 265 267 270 269 269 270 270 271 271 271 270 270 269 267 268 268 267 267 266 266 265 265
272 272 271 270 270 269 267 266 266 264 264 263 262 262 262 260 259 261 263 263 264 265 267 267 268 268 268 267 267 269 269 269 268 267 267 267 267 266 266 264 265 265 265 264
267 267 266 265 263 263 262 263 264 263 261 262 263 261 260 260 261 261 264 265 265 266 266 266 266 268 268 267 267 267 267 267 266 266 266 265 265 265 264 264 264 264 264 264
265 265 264 264 264 263 262 264 263 262 262 260 257 258 261 263 262 263 261 265 267 263 266 267 266 261 264 265 267 266 266 265 265 265 265 265 264 264 263 263 263 263 263 263
265 266 265 265 265 265 264 263 262 263 262 261 261 263 265 266 267 265 265 266 267 264 266 265 260 259 259 264 264 264 264 263 263 263 263 263 263 263 263 263 262 262 262 262
267 267 266 265 265 268 268 267 268 266 264 265 263 262 267 267 266 267 267 261 258 262 263 264 261 258 259 264 263 263 263 263 262 262 262 256 262 261 262 261 262 262 261 259
268 267 267 267 269 270 269 269 268 268 268 269 268 268 267 268 267 267 267 266 261 263 266 258 257 256 264 264 263 263 263 263 263 262 263 263 263 262 262 261 260 261 261 260
270 271 271 271 271 271 271 271 270 270 269 268 268 267 266 265 267 267 266 262 265 263 266 265 263 263 263 264 263 262 262 263 262 262 260 261 261 261 261 260 260 260 260 260
271 270 270 269 269 269 269 268 269 268 267 268 268 268 267 266 265 264 262 265 265 265 265 265 263 262 264 264 264 263 263 263 261 262 262 261 261 261 261 261 261 260 259 258

GFSNGP_sfc_thetae_090.txt.gz
Theta_e
288 289 288 287 287 288 288 288 284 287 287 292 296 299 300 303 301 299 294 293 294 294 297 301 312 314 316 318 320 321 321 318 319 320 321 321 321 320 320 320 321 324 323 323
284 287 287 284 286 288 288 288 288 289 289 296 299 300 299 295 295 293 292 290 291 292 293 295 297 305 306 314 319 320 318 317 320 321 321 322 321 322 321 319 319 319 319 322
280 284 284 281 285 287 288 290 290 287 292 296 295 294 293 293 290 290 289 288 287 289 290 291 293 296 298 300 302 302 302 302 304 307 307 308 315 318 319 320 322 319 318 319
282 283 273 288 293 292 290 291 290 290 292 293 293 290 288 288 289 288 288 286 286 286 289 289 290 291 293 293 294 294 294 295 297 298 298 300 301 302 299 299 297 297 296 294
281 280 282 287 290 290 288 287 287 286 288 289 290 287 284 287 287 286 286 286 285 285 286 288 288 289 289 288 288 288 289 290 291 293 294 294 293 293 293 291 289 289 289 289
283 274 273 286 291 296 296 284 286 287 284 282 290 283 279 284 285 284 284 284 284 284 284 286 287 288 286 286 286 286 287 288 289 290 290 290 289 289 288 288 286 286 285 286
282 280 284 288 291 295 284 282 287 286 283 280 278 280 282 283 283 283 283 283 284 283 282 283 286 286 285 285 284 285 286 287 288 289 288 288 288 288 287 286 285 284 283 284
282 280 277 286 291 285 285 287 287 285 283 282 281 281 281 281 281 281 281 282 282 281 281 282 284 285 283 282 284 285 285 286 287 288 288 289 288 288 287 286 285 284 284 283
281 279 284 285 284 286 286 284 285 285 284 283 280 280 280 280 281 281 281 282 282 281 280 281 282 283 282 283 286 285 284 284 286 287 287 287 287 287 287 287 286 285 285 285
284 283 282 284 285 285 285 283 284 284 283 281 279 279 278 279 279 279 280 280 282 281 280 280 281 282 283 285 285 284 282 284 284 283 283 285 285 284 285 285 285 285 284 283
282 284 284 282 282 283 283 283 281 281 281 280 279 278 278 278 278 278 278 279 279 279 279 279 280 280 281 283 284 283 283 282 282 283 282 281 281 282 282 282 283 282 282 283
280 283 282 280 281 282 279 279 280 279 278 279 279 278 278 277 277 277 277 278 278 278 278 278 279 279 280 281 283 283 281 281 281 281 281 281 279 277 279 280 280 280 281 281
282 283 282 281 281 281 279 278 278 278 278 277 278 278 278 277 277 277 277 277 276 277 278 278 278 278 279 280 280 280 280 281 280 281 281 281 281 281 278 277 276 277 278 278
285 284 280 281 278 280 279 279 279 278 278 278 278 278 277 276 276 276 275 275 276 276 277 277 277 277 279 280 280 279 279 279 280 280 280 280 279 279 279 278 277 276 274 275
282 283 281 281 281 280 280 280 278 277 277 276 277 276 276 274 273 273 274 275 275 274 274 275 275 275 278 280 279 279 280 279 279 278 278 279 279 278 278 278 277 276 277 275
281 281 281 280 279 279 279 279 277 276 276 276 275 274 274 274 273 272 272 272 272 271 272 271 272 273 275 278 279 279 278 277 278 279 278 278 278 277 277 276 276 274 272 272
280 278 278 278 278 277 277 277 277 275 275 274 273 274 274 272 271 270 270 271 270 270 271 271 271 272 273 274 278 279 279 278 277 278 277 277 277 276 275 274 273 272 270 269
280 280 280 279 277 276 275 275 275 274 272 271 269 268 267 267 267 267 268 269 270 269 270 270 272 272 272 274 276 278 277 277 277 276 276 275 275 274 274 273 272 272 271 269
279 278 278 277 277 276 275 273 272 270 269 268 267 265 265 265 267 267 268 269 269 269 269 270 271 272 272 271 275 276 276 276 275 274 274 273 274 273 273 273 272 271 271 270
276 276 276 274 274 273 270 270 270 268 268 267 267 267 266 265 265 266 268 267 268 269 270 270 272 272 271 271 272 274 274 274 273 273 272 273 273 272 271 269 270 270 270 270
272 272 270 269 268 268 269 269 268 267 267 267 267 265 265 266 266 267 270 271 269 269 270 269 270 271 271 271 272 273 273 272 272 272 271 271 271 271 270 270 270 270 269 269
271 270 269 269 268 268 268 269 268 267 267 265 264 265 267 268 267 267 266 269 271 267 270 270 269 265 268 269 271 271 271 270 270 271 270 270 270 269 269 269 268 268 268 268
271 271 270 270 270 270 269 269 268 268 267 267 267 269 270 270 271 271 270 269 271 268 270 269 265 265 266 269 270 269 269 268 268 268 268 268 268 268 268 267 267 267 267 267
272 272 271 271 270 272 272 271 272 270 269 269 268 267 271 272 272 272 271 267 265 267 268 268 266 264 265 269 269 268 268 268 268 268 268 262 268 267 267 266 266 267 266 265
273 272 272 273 274 275 273 273 273 272 272 272 272 272 271 272 271 272 272 272 266 268 270 264 263 263 269 269 269 268 268 268 268 267 267 267 267 266 267 267 265 266 266 265
275 276 276 275 275 276 275 275 274 275 274 273 273 273 274 273 273 272 272 268 270 268 270 271 270 269 269 269 268 268 268 268 267 267 266 266 266 266 266 265 265 265 265 265
276 275 275 275 275 275 274 273 273 274 273 273 272 274 272 273 272 270 269 271 271 270 270 270 270 269 269 269 268 268 268 268 267 267 267 267 266 266 266 265 266 266 265 264

GFSNGP_sfc_thetae_093.txt.gz
Theta_e
291 292 292 291 290 291 289 290 285 288 288 293 297 298 301 301 302 300 297 293 291 292 293 295 297 302 316 317 318 320 319 319 320 323 323 324 323 323 324 324 323 323 322 322
286 290 289 287 288 289 289 289 289 290 290 298 299 300 298 297 295 295 292 291 289 290 290 291 293 295 300 308 316 322 319 318 320 322 321 321 322 322 321 322 322 323 322 323
281 286 285 282 286 287 289 292 291 287 292 296 295 293 288 288 290 289 289 289 287 287 288 289 290 292 293 298 303 303 302 303 306 309 309 310 315 315 314 317 318 312 310 302
281 284 277 288 294 293 291 291 292 292 292 292 291 286 285 285 285 284 285 285 285 285 287 287 288 289 291 292 294 295 295 296 298 300 300 300 301 299 297 296 296 296 295 294
282 283 285 288 290 290 289 286 289 288 289 289 288 286 282 284 284 283 283 284 285 286 285 285 287 287 288 288 289 289 289 291 291 293 293 293 291 291 291 290 288 288 288 288
285 279 277 285 292 296 295 281 287 287 285 282 288 283 278 283 283 282 283 283 283 284 284 284 285 286 285 285 286 286 287 288 289 289 289 288 288 287 287 287 286 285 284 285
283 283 285 287 292 294 284 279 286 286 283 282 278 280 282 283 283 283 283 282 282 282 281 283 285 285 283 283 283 285 287 287 288 288 288 287 287 287 286 285 285 284 283 283
284 282 279 287 291 283 283 287 287 285 284 282 282 282 282 282 282 283 283 282 282 281 281 282 284 284 283 282 284 285 285 286 286 287 288 288 288 286 286 286 285 284 284 283
282 280 285 286 285 286 287 285 285 285 285 283 281 281 281 281 281 282 282 283 283 281 280 281 282 284 282 283 284 285 283 283 284 285 284 284 285 286 286 287 286 285 284 284
284 283 283 284 286 285 285 283 284 284 283 282 280 281 280 280 280 280 280 280 281 281 279 279 281 282 284 285 285 284 283 282 281 281 281 283 283 282 281 284 283 284 284 284
283 284 284 282 283 283 283 283 282 282 282 281 280 279 279 279 279 279 279 280 280 280 279 279 281 281 282 284 285 283 283 283 283 281 279 278 279 280 280 280 282 282 280 281
280 284 282 280 282 283 281 280 282 281 280 281 280 279 280 278 279 279 279 279 279 279 279 279 279 280 281 282 283 282 281 282 282 282 282 280 277 276 279 279 280 280 280 281
283 284 283 282 282 282 280 280 280 280 280 279 280 280 279 278 278 278 278 278 278 278 279 278 278 279 280 282 282 281 281 282 282 282 281 281 281 279 274 276 277 278 278 278
287 286 282 282 280 281 281 281 281 280 280 280 280 280 279 278 278 277 277 277 277 277 277 277 277 277 280 281 281 281 281 280 281 281 281 281 281 280 280 279 276 275 276 276
284 284 283 283 282 282 282 282 279 278 278 278 279 278 278 276 275 274 275 277 276 275 275 275 274 275 278 281 280 279 280 280 280 280 280 280 280 280 279 278 278 277 278 278
283 284 284 283 282 282 282 281 279 278 278 278 277 276 276 276 275 274 274 273 273 272 273 273 273 274 277 278 280 280 279 279 280 280 280 279 279 278 278 277 275 273 272 273
281 280 281 280 280 279 279 280 279 278 277 275 274 275 276 274 273 272 272 273 271 272 272 272 272 273 275 276 279 280 280 279 279 279 278 278 278 277 277 276 274 272 271 272
284 283 283 281 279 278 278 278 277 276 273 272 270 269 269 269 269 269 270 272 272 271 271 272 273 274 273 274 278 279 279 278 278 277 277 276 277 277 276 275 275 274 273 272
282 281 281 280 280 279 277 275 273 271 270 270 269 267 267 268 269 270 271 271 271 271 270 272 273 274 274 273 276 278 278 277 277 276 276 276 276 275 275 275 274 274 273 272
279 280 279 278 277 275 272 271 271 270 270 270 269 269 268 267 268 269 271 269 269 270 272 272 273 274 273 274 275 276 276 276 275 275 274 275 274 274 273 271 272 273 272 272
276 275 273 272 271 271 271 271 270 269 269 269 269 267 267 268 268 269 273 274 271 270 272 272 271 271 272 272 275 275 274 274 274 273 273 273 273 272 272 272 272 272 271 271
274 272 271 271 271 270 271 272 270 270 269 268 267 268 269 272 270 269 269 270 273 269 273 272 270 267 269 271 273 273 272 272 272 273 272 272 272 271 271 271 270 270 271 270
274 273 273 272 272 272 272 271 271 271 269 269 270 271 272 273 273 272 272 272 273 270 273 271 267 267 267 272 272 271 271 270 270 270 270 270 270 270 270 269 268 269 269 269
275 274 273 274 273 273 273 273 273 273 271 271 270 270 272 274 275 275 274 270 268 269 271 270 268 267 266 271 271 270 270 270 270 270 270 266 270 269 269 268 268 268 268 267
274 274 274 274 276 277 276 275 275 275 274 275 274 274 273 275 273 274 273 273 269 270 272 268 268 267 270 271 270 270 270 270 269 268 268 269 269 268 269 268 268 268 267 267
276 277 278 277 278 278 278 277 277 277 276 276 277 277 276 276 274 273 274 271 272 271 272 272 272 271 270 271 271 270 270 270 270 269 268 268 268 268 268 268 267 267 267 267
278 278 278 277 278 277 276 275 275 276 275 275 274 276 275 275 274 273 272 273 273 273 272 273 273 271 271 270 270 270 270 270 269 269 269 268 268 268 268 268 268 267 267 267

GFSNGP_sfc_thetae_096.txt.gz
Theta_e
285 286 292 291 290 290 288 289 285 287 288 291 294 294 294 295 295 294 292 291 290 289 290 290 291 292 296 300 318 320 319 318 319 321 321 322 322 321 321 319 318 317 317 316
284 290 291 287 288 290 290 290 289 290 289 293 294 291 289 289 288 287 286 286 287 287 287 288 288 290 292 294 300 318 314 316 319 320 321 321 321 322 321 321 320 320 318 318
281 287 287 282 287 288 290 290 289 284 287 290 289 284 283 283 284 283 283 284 284 285 285 286 287 287 289 291 295 300 302 303 306 308 308 306 307 306 304 306 303 300 299 297
282 285 277 287 293 293 288 287 287 287 287 287 284 282 282 283 282 281 282 282 282 283 284 285 286 287 288 289 290 292 293 295 298 298 297 297 296 295 294 294 294 293 292 292
282 282 284 287 289 289 288 283 286 285 285 286 286 285 280 283 283 282 282 282 282 283 284 285 285 286 286 286 286 287 288 289 291 293 292 290 289 289 289 288 287 286 287 287
285 279 277 282 287 293 293 278 285 284 282 283 284 279 278 283 283 283 282 282 282 282 283 283 284 285 284 284 284 285 286 287 288 288 288 287 287 286 286 286 284 284 283 284
283 282 281 283 288 293 281 278 285 284 282 280 278 280 282 283 283 284 283 282 282 281 281 281 284 284 283 282 282 284 285 285 285 287 287 287 287 286 286 285 284 283 282 282
284 280 276 284 287 280 283 286 286 283 282 281 281 281 282 282 281 281 281 281 281 280 280 281 282 284 282 282 283 283 283 283 283 284 284 286 287 286 286 286 285 284 283 282
280 279 284 284 283 285 285 283 283 283 283 282 280 279 280 280 280 280 280 280 281 279 279 280 281 282 282 283 284 283 281 280 280 281 282 282 281 282 284 285 284 283 282 281
283 282 282 283 285 284 283 282 283 283 282 281 279 280 279 279 279 279 280 280 280 280 278 279 280 281 282 284 284 284 281 280 279 278 278 279 280 279 279 281 280 281 281 279
282 283 282 281 282 283 283 283 282 282 282 281 280 279 279 279 279 279 280 280 280 279 279 278 280 281 281 283 284 282 282 282 280 279 277 277 278 278 278 279 280 278 278 279
278 283 281 279 282 282 281 280 282 281 280 281 281 279 279 278 278 278 278 279 278 278 278 278 279 279 280 283 282 282 281 281 281 282 279 277 276 275 279 280 280 280 281 279
282 283 282 282 281 282 280 280 281 281 281 280 280 280 279 278 278 278 277 277 277 276 277 277 277 278 280 280 282 280 280 280 280 281 280 280 278 276 274 276 278 278 279 280
287 284 281 282 279 282 281 281 281 280 280 280 279 279 278 276 276 275 276 276 276 275 275 275 275 276 278 281 280 280 280 279 279 279 279 279 279 278 278 276 274 274 277 278
284 285 283 283 283 282 283 281 279 278 278 277 278 277 276 274 273 272 273 275 275 274 273 273 273 273 277 279 280 278 279 280 280 280 280 279 279 278 277 275 273 273 274 276
285 285 284 282 282 282 282 280 278 278 278 277 277 276 275 274 273 273 272 272 271 270 271 271 272 272 274 276 279 280 279 278 279 279 278 278 277 277 275 273 271 270 270 271
282 281 281 280 280 279 279 279 278 277 275 273 272 272 273 273 272 271 272 272 271 271 271 271 271 272 272 273 275 279 279 278 277 277 276 276 276 275 275 274 271 270 269 270
284 284 283 281 279 278 277 277 276 274 271 271 269 268 267 268 268 269 270 272 270 268 270 270 271 272 272 273 274 278 277 277 276 276 275 275 275 275 274 273 273 272 271 270
283 281 281 280 280 278 276 274 271 270 269 269 267 266 266 266 268 269 269 267 267 268 269 270 273 272 273 273 275 277 276 276 275 274 275 274 273 272 272 273 272 271 271 270
280 280 278 276 276 274 271 270 270 269 270 269 267 267 267 265 265 267 270 268 268 269 271 271 271 271 272 272 273 275 275 274 274 273 272 272 272 272 271 269 271 271 271 270
275 274 273 271 270 270 270 270 268 267 267 266 267 265 265 267 267 266 271 272 270 269 270 271 270 268 271 269 272 273 273 272 272 272 271 271 271 271 271 270 270 269 269 269
273 272 271 271 270 270 270 271 270 268 268 266 264 265 266 270 268 268 267 270 272 266 270 271 268 265 267 265 272 271 271 270 270 270 270 269 269 269 269 268 268 267 267 266
273 273 272 270 271 272 272 271 269 270 268 267 268 270 271 273 273 272 270 271 271 268 271 269 264 264 264 270 271 270 270 269 269 268 269 268 268 267 267 267 265 267 265 266
275 274 274 274 273 273 272 272 272 273 270 271 270 268 271 273 274 275 272 268 267 266 270 269 267 264 262 269 271 270 269 269 269 268 268 265 269 267 267 265 264 265 265 263
275 274 274 273 274 276 276 276 275 275 275 275 276 274 273 275 273 273 273 272 270 268 271 268 266 265 268 271 270 270 269 269 269 267 267 267 267 266 267 267 264 266 263 262
276 276 277 278 278 278 277 277 276 277 276 275 277 277 277 276 275 273 274 272 272 271 272 273 272 270 270 270 270 269 269 269 269 269 267 267 267 267 267 266 265 265 264 265
279 279 278 277 277 277 276 274 274 275 275 275 273 275 276 276 275 273 272 273 273 273 273 273 273 272 271 270 269 269 270 270 268 268 267 266 265 266 265 265 266 265 265 262

GFSNGP_sfc_thetae_099.txt.gz
Theta_e
282 284 285 284 286 289 288 287 284 283 281 285 284 284 284 286 286 285 285 284 285 285 285 286 287 289 291 292 295 299 317 319 319 319 320 319 319 318 318 317 316 317 316 314
283 288 288 286 289 287 286 286 285 285 282 288 286 284 283 282 282 282 282 283 283 283 284 285 285 287 289 290 292 295 300 310 316 318 320 319 320 319 318 317 316 316 315 315
280 286 286 282 285 284 283 283 284 279 281 286 281 280 280 280 280 280 281 281 281 282 283 284 285 286 287 288 290 290 291 295 301 303 303 304 304 302 301 299 298 297 296 296
280 283 275 283 288 286 282 282 283 282 282 283 280 280 281 281 280 279 280 280 280 281 282 284 285 285 287 287 287 287 288 289 292 294 294 294 294 293 292 291 290 290 290 290
280 280 282 282 283 282 284 279 282 280 281 284 283 284 279 282 281 280 280 281 281 281 282 283 284 285 285 285 286 285 284 286 288 289 288 288 287 287 288 287 286 286 286 287
282 277 274 279 282 287 287 274 282 281 280 279 282 273 275 281 282 280 280 280 280 280 281 281 284 284 282 281 282 282 284 284 286 287 287 286 286 285 285 285 284 284 284 285
279 277 278 280 283 287 271 275 282 281 280 278 275 277 280 281 280 280 280 279 280 279 279 280 283 283 281 281 279 281 282 284 284 284 286 287 286 286 285 284 284 283 282 283
278 275 272 282 282 277 282 283 282 281 280 277 277 278 278 279 279 279 279 279 279 278 278 280 281 283 281 281 282 281 280 280 280 281 282 284 284 284 285 284 283 282 282 282
278 276 282 282 281 282 282 281 281 281 280 278 276 276 277 278 279 278 279 279 280 278 277 279 281 281 280 282 282 280 279 278 278 279 279 280 280 282 281 282 281 280 280 280
280 279 279 282 282 282 281 280 282 281 280 279 277 278 277 278 278 278 278 277 278 278 276 277 278 280 281 282 283 282 279 278 278 277 277 278 279 279 279 279 278 279 278 278
279 279 280 280 281 281 281 281 280 281 280 280 279 277 277 276 276 277 277 277 277 276 276 276 278 278 280 281 282 281 281 281 278 277 276 276 278 278 278 279 279 278 278 279
274 280 278 278 280 282 280 280 281 280 279 280 279 277 277 276 277 276 276 276 275 275 276 275 276 277 279 281 281 280 279 280 280 279 277 276 275 276 280 280 281 282 282 280
280 280 279 279 281 281 280 280 281 280 279 278 278 277 276 275 276 276 275 274 273 273 274 274 274 275 276 279 280 280 278 279 279 279 279 279 277 276 273 276 280 280 280 281
284 282 279 281 278 281 280 280 280 279 279 278 277 276 274 273 273 272 273 273 273 272 272 272 272 272 274 277 278 278 279 279 278 278 277 277 277 275 275 273 272 273 277 278
283 283 281 282 282 281 281 279 277 276 276 276 276 275 274 272 270 270 271 273 272 271 271 271 271 270 273 275 277 277 277 277 277 277 277 277 276 273 272 271 270 270 271 274
284 283 282 281 281 280 280 278 276 275 274 273 273 273 272 272 271 271 271 270 269 267 269 268 270 270 272 272 272 275 275 276 275 275 274 274 274 273 271 269 269 269 269 270
280 279 279 278 277 277 276 276 274 272 271 270 269 270 271 271 270 269 269 269 267 266 268 266 265 266 268 269 270 273 272 273 272 273 273 273 273 272 272 269 268 269 269 271
281 281 279 278 276 275 274 273 272 270 269 268 266 263 262 262 262 262 263 263 261 262 262 263 266 266 268 269 271 273 273 272 272 272 273 270 271 271 270 269 269 267 268 268
280 279 278 278 276 274 272 270 269 267 264 262 261 259 257 256 257 257 258 259 257 258 262 262 271 267 267 270 269 272 271 270 270 270 271 269 266 267 266 268 266 264 264 265
275 275 274 273 272 270 267 264 264 263 261 261 258 257 257 257 256 257 262 259 259 261 263 265 267 266 268 269 266 270 269 268 269 267 266 265 264 263 265 264 265 267 265 262
270 269 267 266 264 263 262 260 260 259 258 257 258 257 257 258 259 257 262 266 263 263 268 266 266 265 267 265 268 264 264 263 265 268 263 263 266 266 260 258 262 258 257 259
266 266 264 264 265 262 260 261 261 259 259 258 256 255 256 261 259 261 259 264 266 262 267 266 265 260 263 261 266 261 264 263 261 262 260 260 258 257 260 260 257 256 262 262
267 267 267 264 265 264 263 262 260 261 259 259 259 261 262 266 268 265 264 268 268 263 268 263 261 259 258 258 262 258 258 258 258 257 261 256 254 256 254 256 255 257 258 255
269 267 265 265 266 267 266 265 267 268 263 265 264 262 266 263 263 271 268 264 262 260 259 260 259 261 258 256 263 257 257 256 262 256 256 258 260 258 256 254 258 257 254 259
269 268 267 266 270 270 272 273 272 273 272 272 273 272 270 272 265 264 263 263 265 263 261 261 262 262 257 257 257 262 258 256 257 255 255 255 255 254 255 257 255 255 253 252
273 272 272 274 275 275 274 274 270 271 271 266 267 269 269 269 267 265 264 264 265 264 262 267 262 264 264 263 261 257 258 260 263 261 260 256 256 258 259 259 257 256 255 256
275 275 276 274 273 273 270 269 266 265 265 262 262 262 265 264 264 265 265 264 266 269 266 264 265 265 266 261 261 259 258 259 261 263 261 257 255 256 259 257 257 260 259 255

GFSNGP_sfc_thetae_102.txt.gz
Theta_e
281 282 283 282 285 286 285 285 281 280 279 280 280 280 281 282 282 282 281 281 282 282 283 284 285 286 288 289 292 295 296 300 308 319 320 319 318 317 317 317 317 316 315 315
280 284 284 283 285 283 283 284 283 281 279 282 282 281 279 280 280 279 280 280 281 281 282 283 284 285 287 288 289 291 292 292 296 303 317 317 318 318 315 310 312 312 311 309
280 285 285 278 281 280 280 281 281 277 281 281 278 278 277 278 278 278 278 279 279 280 281 283 283 284 284 286 288 288 288 289 290 293 297 299 300 298 297 296 296 294 295 295
281 283 272 280 285 283 280 280 281 280 282 279 278 278 279 279 277 277 278 278 278 279 280 283 283 283 284 284 285 286 286 286 288 289 289 291 291 290 289 289 289 289 289 289
280 278 280 281 281 279 281 276 280 279 280 281 281 280 277 279 279 278 278 279 279 280 280 282 283 283 282 281 281 281 283 284 285 287 286 286 286 286 286 286 285 285 286 286
282 276 273 277 280 284 285 271 281 280 277 277 281 272 273 278 279 278 278 279 278 279 280 280 282 283 281 279 279 279 280 282 284 285 285 285 285 284 284 284 283 284 284 285
279 276 277 278 281 286 272 273 280 279 277 275 273 275 277 279 278 279 279 278 278 278 278 279 281 282 279 279 277 279 280 280 280 281 283 284 285 285 284 284 283 282 282 283
277 274 272 280 280 276 279 281 280 278 277 275 275 276 275 276 276 277 277 277 277 276 276 278 280 280 280 279 280 279 279 278 279 279 280 281 282 282 283 282 282 282 282 282
277 274 280 280 279 281 282 280 280 278 277 276 274 274 275 276 277 276 276 276 277 275 275 277 278 279 278 281 282 280 278 277 277 278 279 279 279 279 279 280 280 281 281 281
277 278 279 280 281 281 281 280 280 279 278 277 274 275 274 275 275 275 276 275 276 275 274 274 277 278 279 279 282 281 279 278 277 276 277 278 279 279 279 278 278 279 279 280
276 278 279 279 280 280 280 279 279 279 278 277 276 276 275 275 274 274 274 274 274 274 274 273 275 276 278 279 279 279 279 280 278 277 276 276 278 279 279 280 281 278 279 280
274 278 277 278 280 280 279 279 279 278 277 279 278 277 276 274 274 273 273 273 272 273 273 273 274 274 276 278 279 278 278 278 279 279 277 276 275 275 280 281 281 282 282 282
276 279 278 278 280 280 278 278 279 278 278 276 276 275 274 273 274 274 272 272 271 271 272 272 273 273 274 276 278 279 278 278 278 278 277 277 276 275 273 276 278 280 280 281
280 280 277 277 277 280 278 279 279 278 277 276 274 273 272 271 271 271 271 272 271 271 271 271 271 271 273 274 277 276 276 275 275 276 275 274 273 272 272 271 270 271 276 277
282 282 279 280 280 279 279 278 276 275 275 274 274 273 272 270 269 268 270 271 271 270 269 269 269 269 272 274 275 274 275 274 273 273 273 273 272 270 270 270 269 270 271 273
281 281 281 280 279 278 277 276 274 273 273 272 272 271 271 270 270 269 269 269 267 265 266 264 267 267 270 270 271 271 270 272 270 271 271 270 269 268 268 268 269 269 269 269
280 278 279 277 277 276 275 274 273 272 271 270 270 271 271 270 269 268 267 267 265 263 265 264 262 263 265 266 268 269 267 269 268 270 270 270 269 268 267 267 267 267 267 268
282 280 279 277 275 274 273 273 272 270 268 268 265 262 260 260 260 260 259 260 260 261 260 259 260 263 265 267 268 270 269 269 270 271 269 266 268 270 267 266 266 266 264 264
279 278 277 276 275 273 272 270 268 267 263 260 259 257 256 254 255 256 254 255 254 256 259 259 269 264 266 268 268 268 268 266 268 268 268 265 263 264 264 265 264 260 260 262
275 275 275 273 272 269 266 262 263 262 259 258 254 254 256 255 253 254 256 258 258 260 261 263 265 266 267 267 265 267 265 264 267 264 262 266 262 258 259 262 265 263 261 260
269 269 267 266 263 261 261 260 260 258 256 255 257 256 256 256 255 254 258 263 261 262 266 265 265 264 266 264 266 258 259 257 258 258 257 256 259 262 258 254 254 255 255 257
267 265 263 263 262 260 257 258 259 256 256 256 253 252 254 259 257 259 258 263 265 262 265 264 264 259 262 260 263 257 260 260 258 258 255 254 253 253 254 253 253 253 256 257
265 264 264 263 264 263 259 259 257 258 257 256 257 258 261 264 265 263 262 267 267 262 266 262 259 258 257 254 256 254 254 254 256 255 254 251 254 254 252 253 252 252 251 252
265 265 263 261 262 265 265 264 264 266 261 263 263 260 265 262 262 268 267 263 262 260 258 257 258 260 257 253 253 255 254 252 254 252 253 253 252 253 254 256 257 254 251 253
267 266 265 266 268 268 270 271 270 270 271 271 271 272 269 270 266 266 262 263 262 262 261 258 259 259 255 253 252 253 254 253 252 252 254 251 252 251 251 253 256 257 256 252
271 271 271 272 272 272 273 274 270 271 271 268 265 262 264 267 268 267 263 261 263 263 261 264 262 257 259 261 260 258 256 256 255 256 258 258 253 252 252 253 253 253 257 254
273 272 272 272 272 271 270 269 266 264 262 260 261 260 262 259 261 263 263 263 265 264 265 265 263 265 266 265 265 265 262 260 256 257 255 253 251 252 251 253 252 252 253 254

GFSNGP_sfc_thetae_105.txt.gz
Theta_e
281 282 282 282 283 284 283 285 278 278 276 277 278 277 278 279 280 279 279 279 280 280 282 283 283 284 285 287 289 291 293 293 295 302 317 319 317 317 316 316 317 316 316 315
279 283 283 279 280 280 282 282 281 279 275 280 279 279 277 277 277 277 277 278 279 280 281 282 282 282 283 284 286 288 288 289 292 293 296 298 309 314 310 306 306 305 303 304
278 283 280 272 278 278 278 279 280 277 277 278 276 276 276 276 276 276 277 277 278 279 280 281 282 282 281 282 284 285 285 287 288 289 289 290 292 294 294 295 294 293 293 294
280 281 270 279 283 281 278 278 279 279 278 277 276 276 277 278 276 276 277 277 278 278 279 281 282 281 282 282 282 282 282 283 286 287 286 287 286 286 287 288 288 288 288 289
279 276 278 281 279 278 279 275 279 277 279 279 278 280 275 278 278 277 277 278 278 279 279 281 282 281 280 279 280 280 280 281 282 285 285 285 284 284 284 285 285 285 286 286
280 276 272 276 278 283 283 270 279 277 276 276 280 272 271 277 278 277 277 278 277 278 279 279 280 282 279 277 277 277 279 280 281 282 283 284 283 283 284 284 283 284 284 285
278 276 276 277 279 285 272 272 278 277 275 274 271 273 275 277 276 277 277 276 276 277 277 277 280 281 279 278 277 277 278 279 280 281 281 281 282 283 283 283 283 283 282 283
277 274 272 278 279 276 278 280 278 277 275 272 272 273 276 276 275 275 274 274 275 274 275 277 278 278 277 278 280 278 277 277 278 279 280 280 280 280 281 281 281 282 282 282
275 273 278 279 278 281 281 279 277 276 276 275 273 273 274 274 274 274 273 273 274 273 273 275 276 278 276 277 280 278 276 275 276 277 279 279 279 280 280 280 280 280 281 281
275 277 278 278 279 280 279 278 279 278 277 276 273 273 273 273 272 272 271 271 272 273 272 272 274 275 276 278 277 278 278 277 276 276 276 278 279 279 279 279 279 279 280 279
275 277 278 278 278 278 279 279 278 278 277 276 275 273 272 269 270 269 269 271 271 272 272 272 273 273 275 277 278 277 278 278 277 277 276 276 276 278 278 279 281 279 279 280
273 277 277 275 279 280 278 277 278 277 277 277 276 273 273 272 272 271 271 272 271 272 272 272 272 273 274 276 278 277 277 277 276 276 276 275 275 275 279 279 280 281 281 281
277 280 278 278 279 280 277 277 278 276 276 274 274 273 273 272 272 273 271 270 270 270 271 271 271 271 272 275 277 276 275 276 275 275 274 273 272 271 271 274 277 278 279 280
280 279 277 278 276 279 279 279 278 276 275 274 272 272 272 270 270 270 269 271 270 269 269 269 269 269 271 273 274 273 273 272 272 273 271 270 268 268 269 269 269 270 274 275
280 281 279 279 278 278 278 276 274 273 273 272 273 271 270 268 267 266 267 270 269 268 267 267 267 267 270 273 273 271 272 270 269 268 269 268 267 267 267 268 267 268 269 270
279 279 279 278 277 276 276 275 273 272 272 272 271 270 270 269 268 267 267 267 265 263 264 262 265 265 268 269 269 268 267 269 267 267 266 265 265 265 266 266 266 266 266 266
278 277 278 276 276 276 275 274 273 272 271 270 270 271 270 269 268 267 265 265 263 261 263 261 259 261 263 264 266 266 265 266 266 267 266 266 265 265 265 264 264 264 263 262
281 280 280 278 276 274 273 273 271 270 268 267 264 261 260 260 260 259 258 258 259 260 259 257 259 262 263 265 267 268 267 267 268 267 266 264 266 266 263 262 263 262 260 261
280 278 277 276 275 274 272 270 268 266 263 260 260 257 254 253 254 254 251 253 254 256 259 259 268 264 265 267 267 267 265 264 266 266 267 263 262 265 260 258 257 256 257 259
277 276 275 273 272 269 266 261 263 262 257 259 254 254 256 254 252 252 254 257 257 260 260 263 264 265 266 266 264 266 263 261 265 263 263 262 256 255 261 263 263 258 254 254
270 270 268 266 261 260 260 258 260 258 255 254 256 255 255 255 254 252 257 262 261 261 265 264 264 263 265 263 264 256 257 255 255 255 253 253 255 260 257 256 257 257 257 257
266 265 262 262 262 259 255 256 258 256 255 254 252 251 253 258 255 257 258 263 265 262 265 264 263 259 261 258 262 255 258 258 258 256 254 252 251 251 251 249 251 253 253 254
265 264 263 262 262 261 258 257 255 256 256 254 255 256 259 263 264 262 262 267 266 263 264 262 260 257 257 253 254 253 253 253 254 253 252 249 251 253 251 251 250 250 249 250
264 264 261 260 262 264 264 261 263 264 259 261 262 260 264 262 263 268 267 264 261 260 258 257 257 259 257 252 252 252 252 251 251 252 259 252 249 249 249 250 252 252 249 251
266 265 264 264 266 266 269 269 269 269 269 270 270 271 270 269 265 265 263 264 262 262 261 259 258 259 258 257 253 254 255 254 254 250 252 251 252 250 249 249 251 257 254 251
269 269 269 270 270 270 271 272 268 268 268 265 265 262 262 263 268 268 267 265 264 264 264 264 262 261 259 262 262 262 261 260 259 256 254 256 254 253 251 252 251 253 255 255
271 271 271 270 271 270 269 269 265 264 263 263 263 261 261 257 258 261 261 259 259 257 257 257 260 262 263 259 260 260 259 260 260 262 261 261 256 254 254 253 253 253 251 252

GFSNGP_sfc_thetae_108.txt.gz
Theta_e
279 281 281 281 280 279 282 283 278 277 275 275 276 276 276 278 278 278 278 278 278 279 280 281 281 282 282 284 285 288 290 290 291 293 296 300 310 316 316 315 316 316 316 315
276 281 282 277 279 278 278 280 278 276 274 278 278 278 276 276 276 276 277 277 278 278 279 280 280 281 281 282 283 285 286 288 289 290 290 291 292 294 295 296 297 300 300 301
276 280 279 274 276 277 277 278 279 276 276 278 275 275 275 275 276 275 276 276 277 277 279 280 280 280 279 281 283 283 283 284 286 287 286 287 288 288 288 288 289 289 290 292
277 279 270 277 283 280 276 277 278 278 277 277 275 275 276 277 276 275 276 276 276 277 278 279 281 280 280 280 280 281 281 282 283 284 285 285 285 285 285 286 285 286 286 287
278 275 276 279 278 277 278 274 277 277 278 279 278 279 275 277 277 276 275 276 276 277 278 279 279 281 279 278 278 279 279 280 282 282 282 283 283 284 284 284 284 284 284 285
280 275 271 275 278 281 282 270 278 277 276 276 279 273 271 276 276 276 276 276 275 276 277 277 278 280 279 277 277 276 278 279 281 282 282 281 282 283 284 284 283 283 283 283
278 275 275 276 278 283 273 271 277 276 274 274 271 271 274 276 275 275 275 274 274 274 275 275 278 279 277 278 276 277 277 278 279 280 281 282 282 282 282 283 283 283 282 283
276 275 272 278 280 276 276 278 277 275 273 272 271 273 273 274 273 272 271 272 272 272 273 275 276 277 276 276 279 277 277 276 277 279 279 280 281 281 282 282 282 281 281 281
274 272 277 278 278 280 280 277 276 275 275 271 268 270 272 272 272 270 269 269 271 270 271 273 274 275 275 276 278 279 277 275 275 276 276 278 278 279 279 280 280 280 280 279
274 276 276 277 278 279 278 276 277 276 274 274 271 270 269 268 269 269 269 270 271 271 270 270 272 273 275 277 278 278 277 276 275 275 275 276 277 278 278 278 277 277 278 278
274 276 277 277 277 278 278 277 276 276 275 273 272 270 269 267 267 268 268 269 271 270 270 270 271 271 273 275 276 276 276 274 273 273 273 273 275 277 277 278 279 277 277 277
268 276 275 276 275 278 276 275 276 276 275 275 274 272 271 270 270 270 270 270 270 270 270 270 271 271 272 275 275 274 274 273 272 271 271 271 270 271 277 278 279 279 280 278
277 278 276 278 277 277 277 276 277 276 275 273 273 272 272 270 271 271 270 269 269 269 269 270 270 270 271 274 274 274 272 273 272 271 270 269 269 268 267 270 275 276 276 278
280 279 276 276 275 277 277 278 277 274 274 273 271 271 271 269 269 269 268 269 269 268 268 268 269 268 269 272 272 271 270 268 268 268 267 266 265 266 267 266 265 266 271 272
280 280 278 278 278 277 276 275 274 272 272 271 272 270 269 267 266 265 266 269 268 266 265 266 266 266 268 271 271 269 270 268 266 264 264 264 264 265 265 265 265 265 265 266
279 278 278 277 276 276 275 274 273 272 272 271 270 270 269 268 267 266 266 265 264 262 263 260 264 263 267 267 268 267 265 267 265 264 264 263 263 263 264 263 263 263 263 262
277 276 276 275 275 275 274 274 273 272 271 270 269 270 269 268 267 265 263 264 262 260 262 260 258 260 262 263 264 265 264 265 265 266 265 265 264 263 263 262 261 261 260 257
280 280 279 277 276 274 273 273 272 271 268 267 264 261 259 259 259 258 257 258 258 258 257 256 258 261 263 264 266 267 266 266 267 266 266 263 264 265 261 261 261 260 259 259
280 279 278 277 276 274 272 270 268 266 262 260 260 257 255 253 253 253 250 253 254 256 259 258 267 264 264 267 266 265 264 263 264 265 265 263 260 262 260 257 256 254 256 258
278 278 276 274 273 270 266 262 262 261 256 257 254 253 256 254 251 252 252 256 257 260 259 262 263 264 265 265 263 265 262 260 263 261 258 259 255 254 256 260 260 256 252 254
274 273 269 267 262 261 261 260 260 258 254 253 256 255 255 254 252 251 257 261 261 261 264 263 263 263 264 262 263 255 256 254 255 255 252 251 250 253 254 252 253 254 255 255
269 267 264 262 262 258 254 256 259 257 254 252 250 250 253 258 255 256 257 262 264 261 263 263 263 260 260 257 261 255 258 258 257 255 254 251 250 251 254 251 250 251 250 250
265 265 263 262 263 261 257 256 254 257 255 254 255 256 259 263 263 261 262 266 265 263 264 262 259 258 257 253 253 252 252 252 253 252 252 249 248 248 249 251 252 251 251 256
264 264 261 260 261 263 263 260 262 263 257 261 259 258 264 261 260 267 267 263 259 258 257 256 256 258 256 252 252 252 252 251 253 252 253 253 251 249 249 250 251 252 249 252
265 264 263 263 266 265 268 268 267 268 268 268 269 269 267 267 264 262 261 262 263 262 260 259 259 260 261 261 260 260 259 257 260 259 255 252 255 253 253 250 251 252 252 251
268 267 267 269 269 269 269 270 266 267 267 263 262 259 258 259 263 263 263 263 264 264 261 261 260 259 257 258 261 261 261 261 260 259 260 260 260 259 257 256 254 255 255 255
270 269 270 269 269 269 268 268 264 263 260 258 260 258 259 256 255 258 257 255 256 254 252 252 252 254 255 254 257 261 262 262 261 261 257 259 260 260 261 259 258 258 258 257

GFSNGP_sfc_thetae_111.txt.gz
Theta_e
280 281 281 281 280 280 276 281 279 276 274 275 277 276 277 278 278 278 277 277 278 278 279 280 280 280 281 282 284 285 287 288 290 292 292 295 296 298 301 299 300 301 307 304
275 282 282 277 279 279 277 279 277 276 274 278 278 278 277 276 276 276 277 277 277 278 278 279 280 280 280 281 282 284 284 285 287 290 290 289 290 291 293 292 292 292 292 292
276 280 279 276 277 277 277 279 279 277 277 278 276 276 275 275 276 275 276 276 276 277 278 279 280 280 279 280 281 281 282 283 284 286 287 285 287 287 286 287 287 286 287 288
278 279 272 278 282 280 277 277 279 278 278 278 276 276 277 277 276 275 275 276 276 277 278 279 280 281 281 281 280 280 280 281 282 283 284 285 285 284 285 285 284 284 284 285
278 276 276 278 279 279 278 275 278 278 279 279 279 280 276 277 277 276 275 276 276 277 278 278 280 281 281 280 279 279 279 280 281 282 282 283 283 284 284 284 283 283 284 283
279 274 272 277 278 282 282 274 278 278 278 279 280 276 273 276 276 275 275 275 274 276 277 277 278 280 279 279 278 277 278 279 280 282 282 282 283 283 284 284 283 283 282 282
279 276 275 277 279 283 275 275 277 277 276 277 274 275 275 276 275 275 274 273 274 274 275 275 277 279 277 278 277 278 279 279 279 280 281 282 283 284 285 284 284 283 282 283
278 275 273 278 281 278 278 279 277 276 275 273 274 274 274 274 273 273 272 273 273 272 273 274 276 277 276 276 279 279 278 278 278 279 280 281 281 282 282 283 283 283 283 283
275 274 278 279 279 281 281 278 277 276 275 274 272 272 272 272 273 273 272 272 273 272 272 273 274 275 275 276 278 277 276 276 276 278 279 279 279 280 280 281 280 280 280 280
276 276 277 278 279 280 280 278 278 277 276 275 272 271 270 271 272 272 273 273 273 273 272 271 273 274 275 276 276 276 274 275 276 276 276 278 280 280 279 279 279 278 278 278
275 277 277 278 279 279 278 278 277 277 276 274 273 271 271 271 272 272 272 272 273 273 272 272 274 274 275 276 276 276 275 275 275 276 275 275 276 277 278 278 278 278 278 278
276 278 278 277 279 279 277 276 277 276 275 275 274 273 273 272 272 272 272 273 273 273 273 273 274 274 275 277 277 275 275 275 274 274 274 274 274 275 275 276 277 277 278 278
278 280 279 279 279 279 278 278 278 277 276 274 275 274 273 272 272 272 272 271 271 271 272 273 273 273 274 276 276 275 274 274 274 274 273 273 273 272 271 273 274 274 274 276
281 280 277 278 277 279 278 278 278 276 276 275 274 273 272 271 271 270 270 271 270 270 270 271 271 270 272 275 274 273 274 271 273 273 273 272 272 272 271 270 270 270 272 272
280 281 280 279 279 278 278 276 274 273 273 272 272 271 270 269 268 267 268 269 269 268 268 269 269 269 271 274 273 272 274 273 273 273 272 271 272 272 271 270 270 269 270 270
279 279 279 278 277 276 276 276 274 273 273 272 272 271 270 269 268 268 268 268 267 265 266 264 267 267 269 271 272 273 273 270 271 273 273 272 272 271 270 270 269 269 268 268
278 276 277 277 276 276 276 276 275 274 273 272 271 271 270 269 268 267 267 267 265 264 265 265 265 265 267 268 271 272 272 272 270 272 272 272 271 271 270 270 269 269 268 266
281 281 280 279 277 276 275 275 274 273 271 271 268 266 265 265 266 265 264 263 264 265 265 264 266 267 268 269 270 271 271 271 271 270 271 270 270 270 270 269 269 268 268 268
282 280 279 279 278 276 275 273 272 270 267 265 265 264 264 263 264 263 261 263 264 266 267 265 268 268 269 270 270 271 270 270 270 269 269 268 269 269 269 269 269 268 268 268
280 280 278 276 275 273 270 267 266 265 263 263 261 261 263 261 261 262 262 267 268 269 267 268 268 269 269 269 267 270 269 269 268 268 268 268 267 267 267 266 267 268 268 267
276 275 273 270 268 267 266 265 263 262 260 261 264 264 265 264 261 261 266 270 269 267 269 267 269 270 269 267 269 270 269 269 269 268 267 267 266 267 267 267 267 267 267 267
274 272 269 267 266 263 263 264 264 261 261 261 259 261 262 265 263 264 265 270 272 266 269 271 271 267 268 263 269 269 269 269 269 268 268 268 267 267 267 267 266 266 266 266
270 269 267 266 266 264 262 263 262 263 262 263 263 264 266 271 272 271 271 271 272 269 271 272 267 264 263 267 268 268 267 267 267 267 267 267 267 266 266 266 267 266 266 266
268 268 266 265 264 265 266 264 265 266 264 266 265 265 268 270 271 272 273 268 264 266 270 270 268 265 262 268 268 268 267 268 267 267 267 264 266 266 266 266 265 267 266 265
268 267 265 266 268 269 270 268 269 269 269 270 271 271 268 271 272 273 272 271 268 270 272 265 264 264 269 269 268 268 268 268 268 268 268 267 266 266 266 266 265 265 266 266
269 269 269 270 271 271 272 271 271 272 272 272 272 271 271 270 271 271 271 268 270 267 269 268 266 266 267 267 266 266 267 267 267 267 266 266 266 266 266 266 266 266 265 266
271 271 271 271 272 273 273 273 273 273 271 272 272 270 270 270 269 269 265 268 267 266 266 265 265 264 264 264 265 265 265 266 265 264 265 265 265 265 265 265 265 266 265 265

GFSNGP_sfc_thetae_114.txt.gz
Theta_e
282 284 284 283 283 283 280 281 278 280 278 277 278 278 279 280 281 281 280 280 280 280 280 281 281 281 281 281 283 284 286 287 289 291 291 292 293 295 297 297 298 298 295 294
280 285 284 281 281 283 280 279 279 279 276 280 281 281 280 279 279 279 279 279 279 280 280 281 282 282 281 281 282 283 283 284 286 287 288 289 288 290 289 291 290 290 289 290
278 282 281 277 278 279 279 281 281 280 279 281 279 278 278 278 279 278 278 278 278 280 280 281 282 283 282 283 282 281 282 282 283 284 285 285 286 285 285 286 287 287 287 287
280 281 275 279 283 283 280 280 282 281 281 281 279 278 279 279 278 278 278 278 278 280 280 280 282 283 285 284 283 281 281 282 283 283 283 284 284 284 284 284 284 284 284 284
279 279 279 280 281 281 280 277 281 281 282 281 281 283 278 279 279 278 277 277 278 279 279 280 281 282 283 283 283 281 281 281 283 284 283 283 283 284 284 283 283 283 283 283
282 277 275 281 282 285 285 278 281 282 283 282 282 281 278 278 279 278 277 277 277 278 279 278 280 282 281 280 280 280 280 281 283 284 284 283 284 284 284 285 284 283 282 283
281 281 280 281 282 285 277 278 281 283 283 284 280 280 278 278 277 278 277 276 277 276 275 276 278 279 278 278 277 279 281 281 282 283 283 284 284 284 284 284 284 284 284 284
282 280 276 282 283 280 281 282 282 282 281 278 278 277 277 276 276 276 276 276 276 275 275 276 277 278 276 276 278 279 280 280 280 281 282 283 283 284 283 284 284 285 285 285
279 279 280 282 282 285 285 282 282 281 280 279 277 277 277 277 277 277 276 277 277 275 275 276 277 277 276 277 278 278 278 279 280 281 281 282 281 281 281 282 282 282 283 283
280 279 279 281 283 284 284 282 282 281 280 279 276 276 276 277 277 277 277 276 278 277 276 275 277 278 278 278 279 279 278 278 279 279 280 280 281 280 278 278 278 278 279 278
277 279 280 280 281 282 281 281 280 280 280 278 277 276 276 276 276 277 277 277 277 277 276 276 277 278 279 279 279 279 278 279 279 279 279 279 278 276 277 277 277 277 277 278
282 282 283 280 281 282 280 279 280 279 278 278 278 276 277 277 277 277 276 277 277 277 277 277 277 277 279 279 279 278 278 278 278 279 279 278 278 278 276 276 275 275 276 277
282 284 284 282 282 283 281 281 281 281 280 278 279 279 278 277 276 275 276 275 275 275 276 276 276 275 277 278 278 278 276 277 278 278 278 277 277 277 276 277 276 275 274 274
284 283 279 281 279 282 282 282 282 281 281 280 278 278 277 275 275 275 273 274 274 274 274 275 274 274 276 277 276 276 277 276 278 277 277 277 277 276 276 275 274 275 275 274
283 285 283 284 282 282 282 281 279 278 278 277 277 275 275 273 272 271 272 272 272 273 272 273 272 272 275 276 276 276 276 276 277 278 277 276 277 276 276 275 275 274 274 273
283 284 283 281 281 281 281 280 279 277 277 276 275 274 274 273 273 272 272 271 271 270 270 269 271 271 273 274 275 276 277 273 275 277 276 276 276 276 275 275 274 274 273 271
280 279 281 280 280 280 280 281 279 277 277 276 275 274 274 272 272 271 271 271 269 269 270 270 270 270 271 272 275 276 276 276 273 276 275 275 275 274 274 274 273 273 273 271
285 284 284 283 281 280 280 279 278 277 276 275 273 272 270 271 271 269 269 269 268 269 270 269 271 271 271 272 273 275 275 275 274 273 274 273 272 274 273 273 272 272 272 272
285 283 283 282 282 280 279 278 277 276 273 271 270 270 270 269 270 270 269 268 269 271 270 271 271 272 272 272 273 274 274 274 273 273 273 272 273 272 272 272 272 272 271 271
283 283 282 281 281 279 277 275 273 271 270 271 269 268 269 268 268 268 269 272 273 274 272 272 272 272 272 272 271 274 274 274 273 273 272 272 272 271 272 270 270 271 271 270
281 281 279 276 275 275 273 272 270 268 268 269 270 270 271 270 268 268 270 275 273 272 272 271 273 274 275 272 273 275 274 274 273 273 272 272 272 271 271 271 271 270 270 270
280 277 275 273 272 270 270 271 270 268 268 268 268 269 270 271 269 269 270 274 276 271 274 275 275 271 273 269 274 274 273 273 273 273 272 272 271 271 271 271 270 270 270 270
279 276 274 272 271 271 270 270 269 269 268 268 269 271 274 277 277 275 275 275 276 274 275 276 272 270 269 273 274 273 273 272 272 272 271 271 271 271 270 270 270 270 270 270
275 275 274 272 269 270 270 270 271 271 271 271 272 272 274 275 276 277 278 274 271 272 275 274 272 270 267 273 273 272 272 272 271 271 271 270 271 271 270 270 269 270 270 270
274 273 271 270 272 274 273 272 273 273 273 274 275 274 273 276 276 277 277 276 271 273 276 269 269 269 273 272 271 271 271 271 270 270 270 269 269 269 269 269 269 269 269 269
274 275 275 275 277 277 276 275 276 277 276 277 277 278 277 278 277 277 277 273 274 273 274 273 271 271 271 270 269 269 269 269 268 268 267 267 267 267 267 268 268 268 268 269
276 275 275 276 277 277 277 277 278 277 278 279 278 277 277 276 275 275 272 275 274 273 272 271 270 268 267 267 268 267 267 267 266 265 265 265 265 265 265 265 265 266 266 266

GFSNGP_sfc_thetae_117.txt.gz
Theta_e
284 285 286 285 285 286 284 285 281 283 280 279 280 281 281 282 282 281 281 281 281 282 282 284 284 285 285 283 283 284 284 285 286 288 289 289 290 290 291 292 292 295 297 295
280 286 286 284 286 286 285 284 281 281 278 282 283 283 281 280 280 279 279 279 280 281 282 282 283 285 286 284 284 284 284 284 285 286 286 287 286 287 288 288 287 288 289 290
280 285 283 280 282 283 283 282 283 280 280 283 281 280 279 279 280 278 279 279 279 280 281 281 283 285 286 286 285 283 283 284 284 284 284 284 285 285 284 284 285 285 285 286
281 283 275 280 286 285 283 283 285 283 283 283 281 281 280 280 279 278 278 278 278 280 280 281 284 283 285 286 285 283 283 283 284 284 284 284 284 284 283 283 283 283 283 283
280 281 281 280 283 283 281 280 286 284 283 283 283 283 279 280 280 278 278 278 278 279 280 280 281 283 282 283 283 282 281 282 283 284 283 283 284 284 284 284 284 283 283 283
283 278 276 283 287 289 288 279 286 286 284 284 284 282 279 280 280 279 278 278 277 278 279 278 279 281 279 279 280 280 281 282 284 284 283 283 284 284 284 285 284 284 283 284
282 281 281 286 286 288 279 279 286 287 287 286 283 280 280 280 279 280 278 277 278 277 276 277 279 280 278 278 277 280 282 283 282 283 283 283 283 284 285 285 284 284 284 283
284 281 278 285 286 281 284 287 287 286 284 281 280 279 278 278 278 278 278 278 278 276 276 278 279 279 277 277 279 280 281 281 282 281 282 282 280 282 283 282 283 282 283 283
283 281 283 285 286 288 288 286 285 284 283 281 279 279 279 279 279 279 278 279 279 278 277 278 280 279 277 279 280 280 281 280 281 282 280 281 280 278 278 280 280 280 280 281
283 281 281 284 286 288 288 285 285 285 283 282 279 279 279 279 279 279 279 279 280 279 278 277 279 280 280 280 281 281 280 281 282 281 282 280 280 280 276 276 276 277 278 276
281 281 282 283 284 285 284 284 283 284 283 281 280 279 279 279 279 279 279 279 279 279 278 278 279 280 281 281 281 282 282 282 282 282 282 282 278 277 277 276 276 275 275 277
283 284 285 282 283 284 283 282 283 282 281 282 281 280 281 280 280 280 279 280 279 279 279 278 279 279 280 280 281 280 280 281 280 281 281 281 280 280 278 277 277 276 275 275
284 288 286 284 284 285 283 283 284 283 282 281 281 282 281 279 279 277 278 278 278 278 278 278 277 277 279 279 279 279 278 279 280 279 280 279 279 278 277 280 279 277 276 276
288 285 281 283 282 284 285 285 285 284 284 283 282 281 280 279 278 277 276 276 277 277 277 276 275 274 277 279 278 277 278 278 280 280 279 279 279 278 278 277 276 277 277 275
286 288 286 286 285 284 285 285 283 282 282 280 281 279 279 277 275 274 275 275 275 275 274 275 274 273 276 278 278 278 277 277 279 279 279 279 279 278 278 277 277 277 277 275
286 287 286 284 284 284 284 284 282 281 280 279 278 278 277 276 276 275 274 274 274 272 272 271 272 272 274 275 278 278 279 276 277 278 278 277 277 277 276 276 276 275 275 273
284 283 283 283 283 283 283 284 283 281 280 279 277 277 276 275 274 274 273 273 271 272 273 272 272 272 273 273 277 278 278 278 276 277 276 276 275 275 275 275 275 274 274 274
288 287 287 286 284 283 283 283 282 281 279 278 277 275 273 274 274 272 271 271 271 271 272 271 272 274 273 274 275 277 277 277 276 276 276 275 275 275 275 274 274 273 273 274
288 286 286 286 285 284 283 282 280 280 277 274 273 272 273 272 272 272 272 271 271 274 272 273 273 274 275 274 274 277 277 276 276 276 275 274 275 274 274 273 273 273 273 272
286 286 285 284 285 283 281 279 276 275 274 274 273 272 271 271 271 271 272 274 274 275 274 274 274 275 274 275 274 276 276 276 275 275 275 274 274 273 274 273 273 273 272 272
285 284 283 282 281 280 277 276 275 272 273 272 273 272 273 272 271 272 273 278 275 274 274 273 275 276 276 275 275 277 276 275 275 274 274 274 274 273 273 273 273 272 272 272
283 280 279 278 276 275 275 275 274 272 272 273 273 273 272 272 272 273 273 275 278 274 276 277 277 275 275 273 275 276 275 274 274 274 274 273 273 272 272 272 272 272 272 272
281 279 277 276 275 275 275 273 272 272 271 271 271 273 276 278 279 278 278 277 278 276 277 278 275 274 273 275 276 275 274 273 273 273 273 272 272 272 272 272 272 271 271 271
280 279 277 277 274 273 272 272 274 273 273 274 274 275 278 278 279 280 280 277 275 275 276 276 274 273 271 275 274 273 273 272 272 272 271 270 271 271 271 270 270 271 271 270
279 278 276 273 275 275 275 275 275 275 275 276 276 276 277 279 279 279 279 278 275 275 277 273 271 271 274 273 272 271 271 271 270 270 270 269 269 269 269 269 269 268 269 269
277 277 277 277 278 278 277 276 277 277 277 278 279 280 279 279 279 278 277 275 275 274 276 275 273 271 271 271 270 270 269 269 269 268 267 267 267 266 266 266 266 266 266 266
279 279 278 278 279 279 278 279 280 279 280 281 280 280 279 278 277 277 275 276 276 275 275 273 272 270 269 268 269 268 268 267 266 265 265 265 264 264 264 263 263 264 264 264

GFSNGP_sfc_thetae_120.txt.gz
Theta_e
283 284 284 284 284 285 284 285 281 283 282 280 281 281 281 282 282 280 280 280 280 281 281 282 283 284 285 284 284 284 284 284 284 286 287 287 287 288 288 287 287 289 289 292
279 284 284 282 285 285 286 286 285 283 282 283 283 283 281 280 279 279 279 279 279 280 280 281 282 283 285 284 283 284 283 283 284 285 285 286 285 285 286 286 286 287 287 287
277 285 285 280 285 286 287 287 285 281 282 282 280 279 279 279 279 278 278 278 278 279 279 280 281 282 283 283 283 283 283 283 284 284 284 284 285 284 284 284 285 284 285 285
280 283 274 282 287 287 285 285 286 283 282 283 281 280 280 280 278 277 277 277 277 278 278 279 281 280 282 282 282 282 282 282 282 283 283 284 284 284 284 284 283 282 282 283
279 279 282 282 284 284 281 281 287 284 283 282 281 280 278 280 279 277 277 277 277 278 278 278 279 280 279 279 280 280 280 281 282 281 281 282 282 283 284 284 283 282 282 281
282 278 276 283 287 290 289 278 287 286 283 282 282 278 276 279 279 278 277 277 276 277 278 277 278 280 277 277 278 278 280 279 280 281 279 279 280 281 283 283 283 283 281 281
280 278 282 287 288 290 278 280 288 288 286 285 282 281 280 280 279 279 278 277 277 276 276 277 277 278 276 277 277 279 280 281 279 279 280 278 279 279 280 281 280 281 280 280
282 279 278 288 287 282 285 289 289 286 284 279 279 279 278 278 278 278 278 277 277 275 275 277 277 277 276 276 278 279 280 279 280 278 278 278 276 276 277 277 278 277 277 277
280 281 285 287 287 290 290 288 286 284 282 280 278 277 278 278 278 278 278 278 279 274 274 276 278 277 275 277 278 278 279 279 279 279 278 278 275 274 274 275 274 275 275 273
283 282 283 285 288 289 288 286 286 285 283 281 279 279 278 279 279 278 279 279 279 279 275 274 276 277 278 278 279 278 278 279 280 279 277 277 277 275 273 273 272 272 273 272
281 283 283 284 286 286 285 286 284 284 283 281 280 279 279 279 279 279 279 279 279 278 277 277 278 278 278 279 280 280 280 279 280 280 279 278 276 276 274 275 275 272 272 272
283 285 285 284 285 285 283 283 283 283 282 282 281 280 280 280 280 279 279 279 278 278 277 277 277 277 278 279 279 279 279 279 278 279 279 279 278 278 280 279 278 277 276 276
286 288 287 285 285 285 283 284 284 283 283 281 282 282 281 279 278 279 278 278 277 277 277 276 275 275 277 279 278 277 277 278 279 278 278 277 277 277 275 278 280 278 277 276
288 285 282 283 282 285 285 285 285 284 283 282 282 281 280 278 278 276 275 276 277 276 275 275 274 273 275 278 279 277 276 276 278 277 277 277 276 276 276 275 274 274 277 275
286 288 285 286 285 284 285 285 283 282 281 281 281 279 279 277 274 274 275 276 275 274 273 273 272 272 275 276 278 278 276 275 276 277 276 275 276 276 275 274 274 273 274 272
287 286 285 284 284 284 284 284 282 281 280 280 279 278 277 276 275 274 274 274 274 271 272 269 271 271 273 274 275 277 277 273 273 276 275 274 274 274 274 273 273 272 272 270
285 283 283 283 283 284 284 285 284 281 280 279 278 277 276 275 274 273 272 272 271 271 272 271 270 269 269 271 273 277 276 276 272 276 275 274 274 273 273 272 272 271 271 271
288 288 287 286 284 284 284 285 283 281 280 278 275 273 271 271 272 271 270 270 269 268 270 269 269 271 270 271 273 276 276 276 276 275 275 273 273 273 273 272 272 271 271 271
289 287 287 286 286 285 285 283 281 278 275 273 272 271 272 270 270 270 271 268 268 271 270 271 274 273 274 272 273 276 276 275 275 275 275 272 273 273 272 272 271 271 270 270
287 287 286 285 285 284 279 277 276 274 274 273 272 271 271 270 269 269 270 273 273 273 274 274 274 276 275 275 272 275 275 275 274 274 273 273 273 272 272 271 272 272 271 270
285 285 283 282 279 278 278 277 274 272 273 272 272 271 271 271 270 270 271 275 273 273 275 272 275 276 275 272 273 275 275 274 273 272 272 272 271 271 271 271 270 270 270 270
283 280 279 278 277 275 276 275 274 273 272 272 272 272 270 270 270 271 271 276 276 271 275 277 276 271 272 269 274 275 274 273 272 272 271 271 270 269 269 269 269 269 269 269
281 280 278 277 276 275 275 273 272 272 272 272 272 272 274 275 276 276 275 276 277 274 276 275 271 269 268 273 275 273 272 271 271 270 270 269 269 269 268 268 268 268 268 268
281 279 277 277 275 274 272 272 273 273 272 273 273 273 277 278 278 279 278 274 271 274 276 273 270 268 266 273 273 271 270 270 269 269 268 267 267 266 266 266 265 266 265 265
280 278 277 274 275 274 274 274 274 274 274 275 275 276 277 280 279 278 278 276 273 273 273 270 269 267 272 271 270 269 269 268 268 267 266 265 265 265 264 264 263 263 263 263
279 278 277 277 278 277 276 276 275 276 276 276 277 278 279 279 277 277 277 274 275 273 275 274 272 270 270 269 267 267 267 267 266 265 263 264 263 263 262 261 261 261 261 261
279 279 278 279 279 278 277 277 277 276 278 279 278 279 279 278 277 277 275 276 275 274 274 273 272 269 268 267 267 266 266 265 263 262 262 262 261 260 260 259 259 259 259 260

GFSNGP_sfc_thetae_123.txt.gz
Theta_e
280 283 283 281 281 282 278 282 276 275 277 279 282 281 280 281 280 279 278 278 278 278 278 279 280 280 282 282 282 283 283 282 283 284 286 286 286 286 286 286 287 287 286 287
271 282 282 279 281 282 280 281 278 278 278 282 282 282 280 279 279 277 277 277 277 278 277 278 279 278 280 280 281 282 281 280 282 283 284 285 285 284 284 284 284 284 285 285
272 282 283 275 278 280 281 284 284 280 280 282 280 279 278 278 278 276 276 276 276 276 276 277 278 278 278 279 280 280 279 280 279 281 281 282 284 284 282 282 282 281 283 283
274 277 271 277 286 286 283 285 283 281 281 281 280 279 279 279 277 276 276 275 275 276 276 277 278 278 278 279 279 279 277 278 279 278 278 280 281 281 283 281 280 280 280 281
273 275 279 281 283 283 280 281 285 282 282 280 279 278 277 278 277 276 275 275 275 276 277 277 277 278 277 278 279 278 277 277 278 277 276 277 277 279 279 280 279 278 278 279
278 276 274 280 287 289 288 276 287 284 281 279 279 277 275 278 277 276 276 275 274 275 277 276 276 277 274 275 276 277 278 277 278 277 276 275 276 276 278 277 277 277 276 277
277 276 279 285 288 291 276 276 286 285 282 280 278 278 277 278 276 276 274 273 274 273 272 272 274 273 273 272 274 275 277 279 277 277 276 275 275 275 276 276 276 275 275 275
278 277 275 287 286 281 282 285 286 285 283 279 277 276 276 275 275 276 275 273 271 270 270 272 273 272 272 273 272 274 274 274 276 276 276 275 274 274 274 274 273 273 273 274
280 277 282 284 283 287 287 283 282 281 280 278 275 275 275 276 276 276 274 273 272 269 268 271 273 273 274 274 272 273 275 273 272 274 274 274 273 273 273 272 272 271 272 272
279 279 282 284 286 286 286 283 282 281 279 278 275 276 275 276 276 276 275 274 275 272 270 271 270 273 273 276 276 273 274 274 274 271 273 272 273 273 273 272 271 271 271 271
278 280 281 284 285 284 284 284 281 281 280 278 278 277 276 274 275 275 274 274 275 274 274 273 274 273 273 276 276 276 275 275 275 276 273 271 273 273 273 275 274 272 272 272
274 281 280 279 284 285 282 282 282 281 279 280 279 277 277 276 277 277 276 276 275 274 273 273 274 274 276 277 276 275 276 276 275 275 275 275 274 274 279 278 278 277 277 276
281 284 282 283 283 284 283 283 283 281 281 279 280 279 279 276 275 277 276 275 274 273 273 272 272 273 273 276 276 275 274 276 275 275 274 274 274 273 271 272 278 277 276 276
284 283 281 282 280 283 284 284 285 283 282 281 280 278 276 275 275 274 273 273 273 273 272 272 271 270 273 274 275 273 273 271 272 273 271 271 269 270 270 270 268 267 273 274
283 285 283 284 284 284 285 284 281 280 280 278 277 276 276 273 272 271 273 274 273 271 271 270 270 268 272 274 274 274 274 270 269 268 268 268 268 268 268 267 266 265 265 269
284 284 284 282 283 283 283 282 280 278 278 277 276 275 275 273 273 272 272 273 271 268 268 263 269 266 270 271 271 271 268 269 267 266 267 267 267 268 268 267 266 265 265 264
282 280 282 281 282 283 282 282 281 279 278 277 276 275 274 272 271 269 268 270 268 267 267 265 263 262 263 263 265 269 266 270 268 269 268 267 267 266 267 266 265 265 263 261
285 284 284 284 283 283 283 282 281 279 277 277 274 272 270 269 268 266 265 265 262 260 261 262 262 263 264 264 267 271 270 271 271 270 270 267 268 270 267 267 267 265 263 264
287 284 285 285 284 284 283 281 279 276 275 273 272 268 266 266 264 261 260 260 259 260 261 262 269 268 268 268 269 270 270 267 269 270 269 267 266 267 265 265 266 263 263 267
283 284 285 285 284 281 276 276 275 273 272 271 269 266 264 262 263 261 262 266 266 266 267 269 270 272 271 271 268 271 268 265 268 266 263 265 262 262 262 264 265 264 262 261
281 282 281 278 277 277 276 275 274 272 272 271 269 267 265 265 264 264 265 268 266 267 272 269 271 271 271 268 269 264 264 263 262 262 261 261 259 260 260 260 259 260 265 265
280 278 277 277 276 275 275 274 274 272 271 270 268 267 267 266 265 267 269 271 272 267 271 273 271 266 267 264 270 266 265 265 263 263 262 260 260 262 261 257 258 263 264 263
278 278 277 276 275 274 273 273 272 271 271 270 269 269 269 271 271 270 269 273 273 268 272 268 265 263 262 261 263 262 261 260 260 258 257 256 257 255 255 260 262 262 259 260
276 276 275 275 274 272 271 271 272 271 269 270 270 270 273 271 270 276 274 271 267 266 270 265 263 263 264 266 262 259 257 256 256 257 258 256 253 253 256 257 259 257 254 257
276 275 274 272 272 272 272 273 273 273 273 273 274 274 276 278 274 273 272 270 269 269 268 265 263 262 261 257 257 257 255 257 259 255 252 252 255 253 251 256 253 252 253 253
277 275 275 276 275 274 273 274 272 272 273 271 271 269 269 274 273 273 272 270 270 270 270 266 259 260 259 256 257 257 257 259 256 253 251 254 253 251 252 251 249 249 250 251
278 277 276 276 277 275 274 274 273 272 272 272 272 271 273 272 272 273 270 271 269 268 266 264 262 261 258 258 257 256 256 255 253 252 250 251 248 248 248 247 248 250 254 253